Observation data for Crane on 02/14/2020      Previous  Date  Next       Current Mesonet Observations  Soil Data  Daily Summary Page  Observations in Plain Language
KCR2 140600Z 10014KT 03/01 A3025 RMK A01 T00290008  RH  086%=      5-min Rain = 0
KCR2 140601Z 09013KT 03/01 A3025 RMK A01 T00290008  RH  086%=      5-min Rain = 0
KCR2 140602Z 09014KT 03/01 A3025 RMK A01 T00290008  RH  086%=      5-min Rain = 0
KCR2 140603Z 09016KT 03/01 A3025 RMK A01 T00280007  RH  086%=      5-min Rain = 0
KCR2 140604Z 09015KT 03/01 A3025 RMK A01 T00280007  RH  086%=      5-min Rain = 0
KCR2 140605Z 09013KT 03/01 A3025 RMK A01 T00280007  RH  086%=      5-min Rain = 0
KCR2 140606Z 09014KT 03/01 A3025 RMK A01 T00280007  RH  086%=      5-min Rain = 0
KCR2 140607Z 09014KT 03/01 A3025 RMK A01 T00270007  RH  086%=      5-min Rain = 0
KCR2 140608Z 09015KT 03/01 A3025 RMK A01 T00270007  RH  086%=      5-min Rain = 0
KCR2 140609Z 09014KT 03/01 A3025 RMK A01 T00280007  RH  086%=      5-min Rain = 0
KCR2 140610Z 09014KT 03/01 A3025 RMK A01 T00270007  RH  087%=      5-min Rain = 0
KCR2 140611Z 09016KT 03/01 A3025 RMK A01 T00270007  RH  087%=      5-min Rain = 0
KCR2 140612Z 09015KT 03/01 A3025 RMK A01 T00270007  RH  087%=      5-min Rain = 0
KCR2 140613Z 09014KT 03/01 A3025 RMK A01 T00270007  RH  087%=      5-min Rain = 0
KCR2 140614Z 09014KT 03/01 A3025 RMK A01 T00260006  RH  087%=      5-min Rain = 0
KCR2 140615Z 09015KT 03/01 A3025 RMK A01 T00260006  RH  087%=      5-min Rain = 0
KCR2 140616Z 09017KT 03/01 A3025 RMK A01 T00250006  RH  087%=      5-min Rain = 0
KCR2 140617Z 09014KT 03/01 A3025 RMK A01 T00260006  RH  087%=      5-min Rain = 0
KCR2 140618Z 09014KT 03/01 A3025 RMK A01 T00250006  RH  087%=      5-min Rain = 0
KCR2 140619Z 09015KT 03/01 A3025 RMK A01 T00250006  RH  087%=      5-min Rain = 0
KCR2 140620Z 09015KT 03/01 A3025 RMK A01 T00250006  RH  087%=      5-min Rain = 0
KCR2 140621Z 09015KT 03/01 A3025 RMK A01 T00250006  RH  088%=      5-min Rain = 0
KCR2 140622Z 09014KT 02/01 A3025 RMK A01 T00240006  RH  088%=      5-min Rain = 0
KCR2 140623Z 09014KT 02/01 A3025 RMK A01 T00240006  RH  088%=      5-min Rain = 0
KCR2 140624Z 09016KT 02/01 A3025 RMK A01 T00240006  RH  088%=      5-min Rain = 0
KCR2 140625Z 09015KT 02/01 A3025 RMK A01 T00230006  RH  088%=      5-min Rain = 0
KCR2 140626Z 09016KT 02/01 A3025 RMK A01 T00230005  RH  088%=      5-min Rain = 0
KCR2 140627Z 09016KT 02/01 A3025 RMK A01 T00230006  RH  088%=      5-min Rain = 0
KCR2 140628Z 09015KT 02/01 A3025 RMK A01 T00230005  RH  088%=      5-min Rain = 0
KCR2 140629Z 09017KT 02/01 A3025 RMK A01 T00230005  RH  088%=      5-min Rain = 0
KCR2 140630Z 09017KT 02/01 A3025 RMK A01 T00220005  RH  088%=      5-min Rain = 0
KCR2 140631Z 09014KT 02/01 A3025 RMK A01 T00220005  RH  088%=      5-min Rain = 0
KCR2 140632Z 09016KT 02/01 A3025 RMK A01 T00220005  RH  088%=      5-min Rain = 0
KCR2 140633Z 09015KT 02/01 A3025 RMK A01 T00220005  RH  088%=      5-min Rain = 0
KCR2 140634Z 09015KT 02/00 A3025 RMK A01 T00210004  RH  089%=      5-min Rain = 0
KCR2 140635Z 09016KT 02/01 A3025 RMK A01 T00210005  RH  089%=      5-min Rain = 0
KCR2 140636Z 09015KT 02/01 A3025 RMK A01 T00220005  RH  089%=      5-min Rain = 0
KCR2 140637Z 09014KT 02/00 A3025 RMK A01 T00210004  RH  089%=      5-min Rain = 0
KCR2 140638Z 09016KT 02/00 A3025 RMK A01 T00210004  RH  089%=      5-min Rain = 0
KCR2 140639Z 09015KT 02/00 A3025 RMK A01 T00210004  RH  089%=      5-min Rain = 0
KCR2 140640Z 09014KT 02/00 A3025 RMK A01 T00210004  RH  089%=      5-min Rain = 0
KCR2 140641Z 09013KT 02/00 A3025 RMK A01 T00200004  RH  089%=      5-min Rain = 0
KCR2 140642Z 09015KT 02/00 A3025 RMK A01 T00200004  RH  089%=      5-min Rain = 0
KCR2 140643Z 09015KT 02/00 A3025 RMK A01 T00200004  RH  089%=      5-min Rain = 0
KCR2 140644Z 09016KT 02/00 A3025 RMK A01 T00190004  RH  089%=      5-min Rain = 0
KCR2 140645Z 09015KT 02/00 A3025 RMK A01 T00190004  RH  089%=      5-min Rain = 0
KCR2 140646Z 09016KT 02/00 A3025 RMK A01 T00190004  RH  089%=      5-min Rain = 0
KCR2 140647Z 09015KT 02/00 A3025 RMK A01 T00190003  RH  089%=      5-min Rain = 0
KCR2 140648Z 09016KT 02/00 A3025 RMK A01 T00180003  RH  089%=      5-min Rain = 0
KCR2 140649Z 09015KT 02/00 A3025 RMK A01 T00180003  RH  090%=      5-min Rain = 0
KCR2 140650Z 09014KT 02/00 A3026 RMK A01 T00180003  RH  090%=      5-min Rain = 0
KCR2 140651Z 09017KT 02/00 A3025 RMK A01 T00180003  RH  090%=      5-min Rain = 0
KCR2 140652Z 09016KT 02/00 A3026 RMK A01 T00180003  RH  090%=      5-min Rain = 0
KCR2 140653Z 09016KT 02/00 A3026 RMK A01 T00170002  RH  090%=      5-min Rain = 0
KCR2 140654Z 09016KT 02/00 A3026 RMK A01 T00170002  RH  090%=      5-min Rain = 0
KCR2 140655Z 09016KT 02/00 A3026 RMK A01 T00170002  RH  090%=      5-min Rain = 0
KCR2 140656Z 09016KT 02/00 A3026 RMK A01 T00170002  RH  090%=      5-min Rain = 0
KCR2 140657Z 09015KT 02/00 A3026 RMK A01 T00170002  RH  090%=      5-min Rain = 0
KCR2 140658Z 09014KT 02/00 A3026 RMK A01 T00170002  RH  090%=      5-min Rain = 0
KCR2 140659Z 09016KT 02/00 A3026 RMK A01 T00160001  RH  090%=      5-min Rain = 0
KCR2 140700Z 09015KT 02/00 A3026 RMK A01 T00160001  RH  090%=      5-min Rain = 0
KCR2 140701Z 09015KT 02/00 A3026 RMK A01 T00160002  RH  090%=      5-min Rain = 0
KCR2 140702Z 09017KT 02/00 A3026 RMK A01 T00160001  RH  090%=      5-min Rain = 0
KCR2 140703Z 09016KT 02/00 A3026 RMK A01 T00160001  RH  090%=      5-min Rain = 0
KCR2 140704Z 09016KT 02/00 A3026 RMK A01 T00150001  RH  090%=      5-min Rain = 0
KCR2 140705Z 09015KT 02/00 A3026 RMK A01 T00150001  RH  090%=      5-min Rain = 0
KCR2 140706Z 09015KT 02/00 A3026 RMK A01 T00150001  RH  090%=      5-min Rain = 0
KCR2 140707Z 09014KT 02/00 A3026 RMK A01 T00150001  RH  091%=      5-min Rain = 0
KCR2 140708Z 09017KT 02/00 A3026 RMK A01 T00150001  RH  091%=      5-min Rain = 0
KCR2 140709Z 10015KT 01/00 A3026 RMK A01 T00140001  RH  091%=      5-min Rain = 0
KCR2 140710Z 09015KT 01/00 A3026 RMK A01 T00140001  RH  091%=      5-min Rain = 0
KCR2 140711Z 09016KT 01/00 A3026 RMK A01 T00140000  RH  091%=      5-min Rain = 0
KCR2 140712Z 09017KT 01/00 A3026 RMK A01 T00140001  RH  091%=      5-min Rain = 0
KCR2 140713Z 09016KT 01/00 A3026 RMK A01 T00130000  RH  091%=      5-min Rain = 0
KCR2 140714Z 09015KT 01/00 A3026 RMK A01 T00130000  RH  091%=      5-min Rain = 0
KCR2 140715Z 09016KT 01/00 A3026 RMK A01 T001300-0  RH  091%=      5-min Rain = 0
KCR2 140716Z 09017KT 01/00 A3026 RMK A01 T00130000  RH  091%=      5-min Rain = 0
KCR2 140717Z 09015KT 01/00 A3026 RMK A01 T001300-0  RH  091%=      5-min Rain = 0
KCR2 140718Z 09015KT 01/00 A3026 RMK A01 T001300-0  RH  091%=      5-min Rain = 0
KCR2 140719Z 09015KT 01/00 A3026 RMK A01 T001200-0  RH  091%=      5-min Rain = 0
KCR2 140720Z 10016KT 01/00 A3026 RMK A01 T001200-0  RH  091%=      5-min Rain = 0
KCR2 140721Z 09018KT 01/M00 A3026 RMK A01 T00121001  RH  092%=      5-min Rain = 0
KCR2 140722Z 10017KT 01/M00 A3026 RMK A01 T00121001  RH  091%=      5-min Rain = 0
KCR2 140723Z 09017KT 01/00 A3026 RMK A01 T001200-0  RH  091%=      5-min Rain = 0
KCR2 140724Z 09019KT 01/00 A3026 RMK A01 T001200-0  RH  091%=      5-min Rain = 0
KCR2 140725Z 09018KT 01/M00 A3026 RMK A01 T00121001  RH  091%=      5-min Rain = 0
KCR2 140726Z 09017KT 01/M00 A3026 RMK A01 T00121001  RH  091%=      5-min Rain = 0
KCR2 140727Z 09017KT 01/M00 A3026 RMK A01 T00121001  RH  091%=      5-min Rain = 0
KCR2 140728Z 09017KT 01/00 A3026 RMK A01 T001200-0  RH  092%=      5-min Rain = 0
KCR2 140729Z 09018G23KT 01/00 A3026 RMK A01 T001200-0  RH  092%=      5-min Rain = 0
KCR2 140730Z 09018KT 01/00 A3026 RMK A01 T001200-0  RH  092%=      5-min Rain = 0
KCR2 140731Z 09016KT 01/00 A3026 RMK A01 T001200-0  RH  092%=      5-min Rain = 0
KCR2 140732Z 10016KT 01/M00 A3026 RMK A01 T00121001  RH  091%=      5-min Rain = 0
KCR2 140733Z 09015KT 01/00 A3026 RMK A01 T001200-0  RH  092%=      5-min Rain = 0
KCR2 140734Z 09016KT 01/00 A3026 RMK A01 T001200-0  RH  092%=      5-min Rain = 0
KCR2 140735Z 10016KT 01/00 A3026 RMK A01 T001200-0  RH  092%=      5-min Rain = 0
KCR2 140736Z 09016KT 01/M00 A3026 RMK A01 T00111001  RH  092%=      5-min Rain = 0
KCR2 140737Z 09015KT 01/M00 A3026 RMK A01 T00111001  RH  092%=      5-min Rain = 0
KCR2 140738Z 09015KT 01/M00 A3026 RMK A01 T00111001  RH  092%=      5-min Rain = 0
KCR2 140739Z 10015KT 01/00 A3026 RMK A01 T001100-0  RH  092%=      5-min Rain = 0
KCR2 140740Z 10015KT 01/M00 A3026 RMK A01 T00111001  RH  092%=      5-min Rain = 0
KCR2 140741Z 09014KT 01/M00 A3026 RMK A01 T00111001  RH  092%=      5-min Rain = 0
KCR2 140742Z 10014KT 01/M00 A3026 RMK A01 T00111001  RH  092%=      5-min Rain = 0
KCR2 140743Z 10015KT 01/M00 A3026 RMK A01 T00111001  RH  092%=      5-min Rain = 0
KCR2 140744Z 09016KT 01/M00 A3026 RMK A01 T00111001  RH  092%=      5-min Rain = 0
KCR2 140745Z 10015KT 01/M00 A3025 RMK A01 T00111001  RH  092%=      5-min Rain = 0
KCR2 140746Z 10015KT 01/M00 A3025 RMK A01 T00101001  RH  092%=      5-min Rain = 0
KCR2 140747Z 10017KT 01/M00 A3025 RMK A01 T00111001  RH  092%=      5-min Rain = 0
KCR2 140748Z 10017KT 01/M00 A3025 RMK A01 T00111001  RH  092%=      5-min Rain = 0
KCR2 140749Z 10016KT 01/M00 A3025 RMK A01 T00101001  RH  092%=      5-min Rain = 0
KCR2 140750Z 10017KT 01/M00 A3025 RMK A01 T00111001  RH  092%=      5-min Rain = 0
KCR2 140751Z 10015KT 01/M00 A3025 RMK A01 T00101001  RH  092%=      5-min Rain = 0
KCR2 140752Z 10016KT 01/M00 A3025 RMK A01 T00111001  RH  092%=      5-min Rain = 0
KCR2 140753Z 10017KT 01/M00 A3025 RMK A01 T00101001  RH  092%=      5-min Rain = 0
KCR2 140754Z 10018G23KT 01/M00 A3025 RMK A01 T00101001  RH  092%=      5-min Rain = 0
KCR2 140755Z 10018KT 01/M00 A3025 RMK A01 T00101001  RH  092%=      5-min Rain = 0
KCR2 140756Z 10019KT 01/M00 A3025 RMK A01 T00111001  RH  092%=      5-min Rain = 0
KCR2 140757Z 10016KT 01/M00 A3025 RMK A01 T00101001  RH  092%=      5-min Rain = 0
KCR2 140758Z 10017KT 01/M00 A3025 RMK A01 T00111001  RH  092%=      5-min Rain = 0
KCR2 140759Z 10016KT 01/00 A3026 RMK A01 T001100-0  RH  092%=      5-min Rain = 0
KCR2 140800Z 10016KT 01/M00 A3025 RMK A01 T00111001  RH  092%=      5-min Rain = 0
KCR2 140801Z 10014KT 01/00 A3025 RMK A01 T001100-0  RH  092%=      5-min Rain = 0
KCR2 140802Z 10016KT 01/00 A3025 RMK A01 T001100-0  RH  092%=      5-min Rain = 0
KCR2 140803Z 10018KT 01/00 A3025 RMK A01 T001100-0  RH  092%=      5-min Rain = 0
KCR2 140804Z 10019KT 01/M00 A3025 RMK A01 T00111001  RH  092%=      5-min Rain = 0
KCR2 140805Z 10019KT 01/M00 A3025 RMK A01 T00111001  RH  092%=      5-min Rain = 0
KCR2 140806Z 10016KT 01/M00 A3025 RMK A01 T00111001  RH  092%=      5-min Rain = 0
KCR2 140807Z 11016KT 01/M00 A3025 RMK A01 T00111001  RH  092%=      5-min Rain = 0
KCR2 140808Z 11015KT 01/M00 A3025 RMK A01 T00111001  RH  092%=      5-min Rain = 0
KCR2 140809Z 10017KT 01/M00 A3025 RMK A01 T00111001  RH  092%=      5-min Rain = 0
KCR2 140810Z 11015KT 01/M00 A3026 RMK A01 T00111001  RH  092%=      5-min Rain = 0
KCR2 140811Z 11018KT 01/M00 A3026 RMK A01 T00111001  RH  092%=      5-min Rain = 0
KCR2 140812Z 11017KT 01/M00 A3026 RMK A01 T00111001  RH  092%=      5-min Rain = 0
KCR2 140813Z 11018KT 01/M00 A3026 RMK A01 T00111001  RH  092%=      5-min Rain = 0
KCR2 140814Z 11018KT 01/M00 A3026 RMK A01 T00111001  RH  092%=      5-min Rain = 0
KCR2 140815Z 11018KT 01/00 A3026 RMK A01 T001100-0  RH  092%=      5-min Rain = 0
KCR2 140816Z 11017KT 01/M00 A3026 RMK A01 T00111001  RH  092%=      5-min Rain = 0
KCR2 140817Z 10016KT 01/M00 A3026 RMK A01 T00111001  RH  092%=      5-min Rain = 0
KCR2 140818Z 10017KT 01/M00 A3026 RMK A01 T00111001  RH  092%=      5-min Rain = 0
KCR2 140819Z 11019KT 01/M00 A3026 RMK A01 T00111001  RH  092%=      5-min Rain = 0
KCR2 140820Z 11017KT 01/M00 A3026 RMK A01 T00111001  RH  092%=      5-min Rain = 0
KCR2 140821Z 11016KT 01/M00 A3026 RMK A01 T00111001  RH  092%=      5-min Rain = 0
KCR2 140822Z 11015KT 01/M00 A3026 RMK A01 T00111001  RH  092%=      5-min Rain = 0
KCR2 140823Z 11019KT 01/00 A3025 RMK A01 T001100-0  RH  092%=      5-min Rain = 0
KCR2 140824Z 11018KT 01/M00 A3025 RMK A01 T00111001  RH  092%=      5-min Rain = 0
KCR2 140825Z 11017KT 01/00 A3025 RMK A01 T001100-0  RH  092%=      5-min Rain = 0
KCR2 140826Z 11015KT 01/M00 A3026 RMK A01 T00111001  RH  092%=      5-min Rain = 0
KCR2 140827Z 11014KT 01/00 A3025 RMK A01 T001100-0  RH  092%=      5-min Rain = 0
KCR2 140828Z 11018KT 01/00 A3025 RMK A01 T001100-0  RH  092%=      5-min Rain = 0
KCR2 140829Z 11018KT 01/M00 A3025 RMK A01 T00111001  RH  092%=      5-min Rain = 0
KCR2 140830Z 11016KT 01/00 A3025 RMK A01 T001100-0  RH  092%=      5-min Rain = 0
KCR2 140831Z 11018KT 01/M00 A3025 RMK A01 T00111001  RH  092%=      5-min Rain = 0
KCR2 140832Z 11019KT 01/M00 A3025 RMK A01 T00101001  RH  092%=      5-min Rain = 0
KCR2 140833Z 11016KT 01/M00 A3025 RMK A01 T00111001  RH  092%=      5-min Rain = 0
KCR2 140834Z 11016KT 01/M00 A3025 RMK A01 T00101001  RH  092%=      5-min Rain = 0
KCR2 140835Z 11017KT 01/M00 A3026 RMK A01 T00101001  RH  092%=      5-min Rain = 0
KCR2 140836Z 11015KT 01/M00 A3026 RMK A01 T00101001  RH  092%=      5-min Rain = 0
KCR2 140837Z 11017KT 01/M00 A3026 RMK A01 T00101001  RH  092%=      5-min Rain = 0
KCR2 140838Z 11016KT 01/M00 A3026 RMK A01 T00111001  RH  092%=      5-min Rain = 0
KCR2 140839Z 10014KT 01/M00 A3026 RMK A01 T00101001  RH  092%=      5-min Rain = 0
KCR2 140840Z 11014KT 01/M00 A3026 RMK A01 T00101001  RH  092%=      5-min Rain = 0
KCR2 140841Z 11014KT 01/00 A3026 RMK A01 T001100-0  RH  092%=      5-min Rain = 0
KCR2 140842Z 10016KT 01/00 A3026 RMK A01 T001100-0  RH  092%=      5-min Rain = 0
KCR2 140843Z 10017KT 01/00 A3026 RMK A01 T001100-0  RH  092%=      5-min Rain = 0
KCR2 140844Z 10015KT 01/00 A3026 RMK A01 T001100-0  RH  092%=      5-min Rain = 0
KCR2 140845Z 10016KT 01/00 A3026 RMK A01 T001100-0  RH  092%=      5-min Rain = 0
KCR2 140846Z 10015KT 01/M00 A3026 RMK A01 T00111001  RH  092%=      5-min Rain = 0
KCR2 140847Z 11014KT 01/00 A3026 RMK A01 T001100-0  RH  092%=      5-min Rain = 0
KCR2 140848Z 11014KT 01/M00 A3026 RMK A01 T00111001  RH  092%=      5-min Rain = 0
KCR2 140849Z 11017KT 01/00 A3026 RMK A01 T001100-0  RH  092%=      5-min Rain = 0
KCR2 140850Z 11016KT 01/M00 A3026 RMK A01 T00111001  RH  092%=      5-min Rain = 0
KCR2 140851Z 11014KT 01/M00 A3026 RMK A01 T00111001  RH  092%=      5-min Rain = 0
KCR2 140852Z 11014KT 01/M00 A3026 RMK A01 T00111001  RH  092%=      5-min Rain = 0
KCR2 140853Z 11016KT 01/M00 A3026 RMK A01 T00111001  RH  092%=      5-min Rain = 0
KCR2 140854Z 11017KT 01/M00 A3026 RMK A01 T00111001  RH  092%=      5-min Rain = 0
KCR2 140855Z 11017KT 01/M00 A3026 RMK A01 T00101001  RH  092%=      5-min Rain = 0
KCR2 140856Z 11017KT 01/M00 A3026 RMK A01 T00101001  RH  092%=      5-min Rain = 0
KCR2 140857Z 10017KT 01/M00 A3026 RMK A01 T00111001  RH  092%=      5-min Rain = 0
KCR2 140858Z 11017KT 01/M00 A3026 RMK A01 T00101001  RH  092%=      5-min Rain = 0
KCR2 140859Z 11013KT 01/M00 A3026 RMK A01 T00111001  RH  092%=      5-min Rain = 0
KCR2 140900Z 10012KT 01/M00 A3026 RMK A01 T00111001  RH  092%=      5-min Rain = 0
KCR2 140901Z 10014KT 01/M00 A3026 RMK A01 T00101001  RH  092%=      5-min Rain = 0
KCR2 140902Z 10014KT 01/M00 A3026 RMK A01 T00111001  RH  092%=      5-min Rain = 0
KCR2 140903Z 10013KT 01/M00 A3026 RMK A01 T00101001  RH  092%=      5-min Rain = 0
KCR2 140904Z 10015KT 01/M00 A3026 RMK A01 T00101001  RH  092%=      5-min Rain = 0
KCR2 140905Z 10015KT 01/M00 A3026 RMK A01 T00101001  RH  092%=      5-min Rain = 0
KCR2 140906Z 10012KT 01/M00 A3026 RMK A01 T00111001  RH  092%=      5-min Rain = 0
KCR2 140907Z 10012G17KT 01/M00 A3026 RMK A01 T00111001  RH  092%=      5-min Rain = 0
KCR2 140908Z 11016KT 01/M00 A3026 RMK A01 T00111001  RH  092%=      5-min Rain = 0
KCR2 140909Z 11015KT 01/M00 A3026 RMK A01 T00111001  RH  092%=      5-min Rain = 0
KCR2 140910Z 10014KT 01/M00 A3026 RMK A01 T00111001  RH  092%=      5-min Rain = 0
KCR2 140911Z 10016KT 01/M00 A3026 RMK A01 T00111001  RH  092%=      5-min Rain = 0
KCR2 140912Z 10014KT 01/M00 A3026 RMK A01 T00111001  RH  092%=      5-min Rain = 0
KCR2 140913Z 10013KT 01/M00 A3026 RMK A01 T00111001  RH  092%=      5-min Rain = 0
KCR2 140914Z 10013KT 01/M00 A3026 RMK A01 T00111001  RH  092%=      5-min Rain = 0
KCR2 140915Z 11015KT 01/M00 A3026 RMK A01 T00111001  RH  092%=      5-min Rain = 0
KCR2 140916Z 11012KT 01/M00 A3026 RMK A01 T00111001  RH  092%=      5-min Rain = 0
KCR2 140917Z 11012KT 01/M00 A3026 RMK A01 T00111001  RH  092%=      5-min Rain = 0
KCR2 140918Z 11014KT 01/00 A3026 RMK A01 T001100-0  RH  092%=      5-min Rain = 0
KCR2 140919Z 11012KT 01/M00 A3026 RMK A01 T00111001  RH  092%=      5-min Rain = 0
KCR2 140920Z 10012KT 01/M00 A3026 RMK A01 T00111001  RH  092%=      5-min Rain = 0
KCR2 140921Z 10013KT 01/M00 A3026 RMK A01 T00111001  RH  092%=      5-min Rain = 0
KCR2 140922Z 10014KT 01/00 A3026 RMK A01 T001100-0  RH  092%=      5-min Rain = 0
KCR2 140923Z 10011KT 01/00 A3026 RMK A01 T001100-0  RH  092%=      5-min Rain = 0
KCR2 140924Z 10012KT 01/00 A3026 RMK A01 T001100-0  RH  092%=      5-min Rain = 0
KCR2 140925Z 10011KT 01/00 A3027 RMK A01 T001200-0  RH  092%=      5-min Rain = 0
KCR2 140926Z 10012KT 01/00 A3027 RMK A01 T001100-0  RH  092%=      5-min Rain = 0
KCR2 140927Z 10012KT 01/00 A3026 RMK A01 T001100-0  RH  092%=      5-min Rain = 0
KCR2 140928Z 11012KT 01/00 A3027 RMK A01 T00120000  RH  092%=      5-min Rain = 0
KCR2 140929Z 10011KT 01/00 A3027 RMK A01 T00120000  RH  092%=      5-min Rain = 0
KCR2 140930Z 10012KT 01/00 A3027 RMK A01 T00120000  RH  092%=      5-min Rain = 0
KCR2 140931Z 10011KT 01/00 A3027 RMK A01 T00120000  RH  092%=      5-min Rain = 0
KCR2 140932Z 10012KT 01/00 A3027 RMK A01 T00120000  RH  092%=      5-min Rain = 0
KCR2 140933Z 10012KT 01/00 A3027 RMK A01 T001200-0  RH  092%=      5-min Rain = 0
KCR2 140934Z 10014KT 01/00 A3027 RMK A01 T00120000  RH  092%=      5-min Rain = 0
KCR2 140935Z 10014KT 01/00 A3027 RMK A01 T00120001  RH  092%=      5-min Rain = 0
KCR2 140936Z 10012KT 01/00 A3027 RMK A01 T00120000  RH  092%=      5-min Rain = 0
KCR2 140937Z 10013KT 01/00 A3027 RMK A01 T00120000  RH  092%=      5-min Rain = 0
KCR2 140938Z 10011KT 01/00 A3027 RMK A01 T00120000  RH  092%=      5-min Rain = 0
KCR2 140939Z 10012KT 01/00 A3027 RMK A01 T00130001  RH  092%=      5-min Rain = 0
KCR2 140940Z 10012KT 01/00 A3027 RMK A01 T00130001  RH  092%=      5-min Rain = 0
KCR2 140941Z 10012KT 01/00 A3027 RMK A01 T00130001  RH  092%=      5-min Rain = 0
KCR2 140942Z 10009KT 01/00 A3027 RMK A01 T00130001  RH  092%=      5-min Rain = 0
KCR2 140943Z 11010KT 01/00 A3027 RMK A01 T00130001  RH  092%=      5-min Rain = 0
KCR2 140944Z 11010KT 01/00 A3027 RMK A01 T00130001  RH  092%=      5-min Rain = 0
KCR2 140945Z 10011KT 01/00 A3027 RMK A01 T00130001  RH  092%=      5-min Rain = 0
KCR2 140946Z 10011KT 01/00 A3027 RMK A01 T00130001  RH  092%=      5-min Rain = 0
KCR2 140947Z 11012KT 01/00 A3027 RMK A01 T00130001  RH  092%=      5-min Rain = 0
KCR2 140948Z 11013KT 01/00 A3027 RMK A01 T00130001  RH  092%=      5-min Rain = 0
KCR2 140949Z 11013KT 01/00 A3027 RMK A01 T00130001  RH  092%=      5-min Rain = 0
KCR2 140950Z 11010KT 01/00 A3027 RMK A01 T00130001  RH  092%=      5-min Rain = 0
KCR2 140951Z 10011KT 01/00 A3027 RMK A01 T00130001  RH  092%=      5-min Rain = 0
KCR2 140952Z 10012KT 01/00 A3027 RMK A01 T00130001  RH  092%=      5-min Rain = 0
KCR2 140953Z 11013KT 01/00 A3027 RMK A01 T00130001  RH  092%=      5-min Rain = 0
KCR2 140954Z 10010KT 01/00 A3027 RMK A01 T00130001  RH  092%=      5-min Rain = 0
KCR2 140955Z 10009KT 01/00 A3027 RMK A01 T00130001  RH  092%=      5-min Rain = 0
KCR2 140956Z 10012KT 01/00 A3027 RMK A01 T00140002  RH  092%=      5-min Rain = 0
KCR2 140957Z 10011KT 01/00 A3027 RMK A01 T00140002  RH  092%=      5-min Rain = 0
KCR2 140958Z 10010KT 01/00 A3027 RMK A01 T00140002  RH  092%=      5-min Rain = 0
KCR2 140959Z 10011KT 01/00 A3027 RMK A01 T00140002  RH  092%=      5-min Rain = 0
KCR2 141000Z 10013KT 01/00 A3027 RMK A01 T00140002  RH  092%=      5-min Rain = 0
KCR2 141001Z 11010KT 01/00 A3027 RMK A01 T00140002  RH  092%=      5-min Rain = 0
KCR2 141002Z 11011KT 01/00 A3027 RMK A01 T00140002  RH  092%=      5-min Rain = 0
KCR2 141003Z 10010KT 01/00 A3027 RMK A01 T00140002  RH  092%=      5-min Rain = 0
KCR2 141004Z 11009KT 01/00 A3027 RMK A01 T00130001  RH  092%=      5-min Rain = 0
KCR2 141005Z 10012KT 01/00 A3027 RMK A01 T00140002  RH  092%=      5-min Rain = 0
KCR2 141006Z 11012KT 01/00 A3027 RMK A01 T00140001  RH  092%=      5-min Rain = 0
KCR2 141007Z 11011KT 01/00 A3027 RMK A01 T00140001  RH  092%=      5-min Rain = 0
KCR2 141008Z 10012KT 01/00 A3027 RMK A01 T00140001  RH  092%=      5-min Rain = 0
KCR2 141009Z 10013KT 01/00 A3027 RMK A01 T00140001  RH  091%=      5-min Rain = 0
KCR2 141010Z 11014KT 01/00 A3027 RMK A01 T00140001  RH  091%=      5-min Rain = 0
KCR2 141011Z 11013KT 01/00 A3026 RMK A01 T00140001  RH  091%=      5-min Rain = 0
KCR2 141012Z 11011KT 01/00 A3027 RMK A01 T00140001  RH  091%=      5-min Rain = 0
KCR2 141013Z 11011KT 01/00 A3027 RMK A01 T00140001  RH  092%=      5-min Rain = 0
KCR2 141014Z 11011KT 01/00 A3027 RMK A01 T00140001  RH  092%=      5-min Rain = 0
KCR2 141015Z 11010KT 01/00 A3027 RMK A01 T00140001  RH  092%=      5-min Rain = 0
KCR2 141016Z 10010KT 01/00 A3027 RMK A01 T00140002  RH  092%=      5-min Rain = 0
KCR2 141017Z 10012KT 01/00 A3027 RMK A01 T00140001  RH  092%=      5-min Rain = 0
KCR2 141018Z 10011KT 01/00 A3027 RMK A01 T00140002  RH  092%=      5-min Rain = 0
KCR2 141019Z 10012KT 01/00 A3027 RMK A01 T00140002  RH  092%=      5-min Rain = 0
KCR2 141020Z 10009KT 01/00 A3027 RMK A01 T00140001  RH  092%=      5-min Rain = 0
KCR2 141021Z 10010KT 01/00 A3027 RMK A01 T00140001  RH  092%=      5-min Rain = 0
KCR2 141022Z 10011KT 01/00 A3026 RMK A01 T00140001  RH  092%=      5-min Rain = 0
KCR2 141023Z 10011KT 01/00 A3027 RMK A01 T00140001  RH  092%=      5-min Rain = 0
KCR2 141024Z 10011KT 01/00 A3027 RMK A01 T00140002  RH  092%=      5-min Rain = 0
KCR2 141025Z 11010KT 01/00 A3026 RMK A01 T00140002  RH  092%=      5-min Rain = 0
KCR2 141026Z 11012KT 01/00 A3026 RMK A01 T00140002  RH  092%=      5-min Rain = 0
KCR2 141027Z 10012KT 01/00 A3027 RMK A01 T00140001  RH  092%=      5-min Rain = 0
KCR2 141028Z 10012KT 01/00 A3027 RMK A01 T00140002  RH  092%=      5-min Rain = 0
KCR2 141029Z 09010KT 01/00 A3027 RMK A01 T00140002  RH  092%=      5-min Rain = 0
KCR2 141030Z 09011KT 01/00 A3027 RMK A01 T00140001  RH  092%=      5-min Rain = 0
KCR2 141031Z 10013KT 01/00 A3027 RMK A01 T00140002  RH  092%=      5-min Rain = 0
KCR2 141032Z 10012KT 01/00 A3027 RMK A01 T00140001  RH  092%=      5-min Rain = 0
KCR2 141033Z 10009KT 01/00 A3027 RMK A01 T00140002  RH  092%=      5-min Rain = 0
KCR2 141034Z 11010KT 01/00 A3027 RMK A01 T00130001  RH  092%=      5-min Rain = 0
KCR2 141035Z 10010KT 01/00 A3026 RMK A01 T00130001  RH  092%=      5-min Rain = 0
KCR2 141036Z 10008KT 01/00 A3026 RMK A01 T00130001  RH  092%=      5-min Rain = 0
KCR2 141037Z 11009KT 01/00 A3026 RMK A01 T00130002  RH  092%=      5-min Rain = 0
KCR2 141038Z 10010KT 01/00 A3026 RMK A01 T00130002  RH  092%=      5-min Rain = 0
KCR2 141039Z 10012KT 01/00 A3026 RMK A01 T00130002  RH  092%=      5-min Rain = 0
KCR2 141040Z 10011KT 01/00 A3026 RMK A01 T00130002  RH  092%=      5-min Rain = 0
KCR2 141041Z 10010KT 01/00 A3026 RMK A01 T00130002  RH  092%=      5-min Rain = 0
KCR2 141042Z 10011KT 01/00 A3026 RMK A01 T00130002  RH  092%=      5-min Rain = 0
KCR2 141043Z 10012KT 01/00 A3026 RMK A01 T00130002  RH  092%=      5-min Rain = 0
KCR2 141044Z 11011KT 01/00 A3026 RMK A01 T00130001  RH  092%=      5-min Rain = 0
KCR2 141045Z 11010KT 01/00 A3026 RMK A01 T00130002  RH  092%=      5-min Rain = 0
KCR2 141046Z 10008KT 01/00 A3026 RMK A01 T00130002  RH  092%=      5-min Rain = 0
KCR2 141047Z 10011KT 01/00 A3026 RMK A01 T00130002  RH  092%=      5-min Rain = 0
KCR2 141048Z 10011KT 01/00 A3026 RMK A01 T00130002  RH  092%=      5-min Rain = 0
KCR2 141049Z 10011KT 01/00 A3026 RMK A01 T00130002  RH  092%=      5-min Rain = 0
KCR2 141050Z 10011KT 01/00 A3026 RMK A01 T00130002  RH  092%=      5-min Rain = 0
KCR2 141051Z 10012KT 01/00 A3026 RMK A01 T00130002  RH  092%=      5-min Rain = 0
KCR2 141052Z 10010KT 01/00 A3026 RMK A01 T00130001  RH  092%=      5-min Rain = 0
KCR2 141053Z 10009KT 01/00 A3027 RMK A01 T00130001  RH  092%=      5-min Rain = 0
KCR2 141054Z 10011KT 01/00 A3027 RMK A01 T00130001  RH  092%=      5-min Rain = 0
KCR2 141055Z 10010KT 01/00 A3027 RMK A01 T00130001  RH  092%=      5-min Rain = 0
KCR2 141056Z 10009KT 01/00 A3027 RMK A01 T00130001  RH  092%=      5-min Rain = 0
KCR2 141057Z 10011KT 01/00 A3027 RMK A01 T00130001  RH  092%=      5-min Rain = 0
KCR2 141058Z 10009KT 01/00 A3027 RMK A01 T00130001  RH  092%=      5-min Rain = 0
KCR2 141059Z 09010KT 01/00 A3027 RMK A01 T00130002  RH  092%=      5-min Rain = 0
KCR2 141100Z 10010KT 01/00 A3027 RMK A01 T00130002  RH  092%=      5-min Rain = 0
KCR2 141101Z 10009KT 01/00 A3027 RMK A01 T00130002  RH  092%=      5-min Rain = 0
KCR2 141102Z 10010KT 01/00 A3027 RMK A01 T00130002  RH  092%=      5-min Rain = 0
KCR2 141103Z 11008KT 01/00 A3027 RMK A01 T00130002  RH  092%=      5-min Rain = 0
KCR2 141104Z 11009KT 01/00 A3027 RMK A01 T00120001  RH  092%=      5-min Rain = 0
KCR2 141105Z 10011KT 01/00 A3027 RMK A01 T00120001  RH  092%=      5-min Rain = 0
KCR2 141106Z 11008KT 01/00 A3027 RMK A01 T00120001  RH  092%=      5-min Rain = 0
KCR2 141107Z 11008KT 01/00 A3027 RMK A01 T00120001  RH  092%=      5-min Rain = 0
KCR2 141108Z 10009KT 01/00 A3027 RMK A01 T00120001  RH  092%=      5-min Rain = 0
KCR2 141109Z 11009KT 01/00 A3027 RMK A01 T00120001  RH  093%=      5-min Rain = 0
KCR2 141110Z 10009KT 01/00 A3027 RMK A01 T00120001  RH  092%=      5-min Rain = 0
KCR2 141111Z 10008KT 01/00 A3027 RMK A01 T00120001  RH  092%=      5-min Rain = 0
KCR2 141112Z 10008KT 01/00 A3027 RMK A01 T00110001  RH  092%=      5-min Rain = 0
KCR2 141113Z 10011KT 01/00 A3027 RMK A01 T00110001  RH  093%=      5-min Rain = 0
KCR2 141114Z 10010KT 01/00 A3027 RMK A01 T00110001  RH  093%=      5-min Rain = 0
KCR2 141115Z 10011KT 01/00 A3027 RMK A01 T00110001  RH  093%=      5-min Rain = 0
KCR2 141116Z 10011KT 01/00 A3027 RMK A01 T00110001  RH  093%=      5-min Rain = 0
KCR2 141117Z 10011KT 01/00 A3027 RMK A01 T00110001  RH  093%=      5-min Rain = 0
KCR2 141118Z 10009KT 01/00 A3027 RMK A01 T00120001  RH  093%=      5-min Rain = 0
KCR2 141119Z 10009KT 01/00 A3027 RMK A01 T00110001  RH  093%=      5-min Rain = 0
KCR2 141120Z 10011KT 01/00 A3027 RMK A01 T00110000  RH  093%=      5-min Rain = 0
KCR2 141121Z 10010KT 01/00 A3027 RMK A01 T00110000  RH  093%=      5-min Rain = 0
KCR2 141122Z 10010KT 01/00 A3027 RMK A01 T00110001  RH  093%=      5-min Rain = 0
KCR2 141123Z 10010KT 01/00 A3027 RMK A01 T00110001  RH  093%=      5-min Rain = 0
KCR2 141124Z 11009KT 01/00 A3027 RMK A01 T00110001  RH  093%=      5-min Rain = 0
KCR2 141125Z 11009KT 01/00 A3027 RMK A01 T00110000  RH  093%=      5-min Rain = 0
KCR2 141126Z 11011KT 01/00 A3027 RMK A01 T00110001  RH  093%=      5-min Rain = 0
KCR2 141127Z 11008KT 01/00 A3027 RMK A01 T00110001  RH  093%=      5-min Rain = 0
KCR2 141128Z 11009KT 01/00 A3027 RMK A01 T00110001  RH  093%=      5-min Rain = 0
KCR2 141129Z 10008KT 01/00 A3027 RMK A01 T00110000  RH  093%=      5-min Rain = 0
KCR2 141130Z 10008KT 01/00 A3027 RMK A01 T00110000  RH  093%=      5-min Rain = 0
KCR2 141131Z 10008KT 01/00 A3027 RMK A01 T00110001  RH  093%=      5-min Rain = 0
KCR2 141132Z 11009KT 01/00 A3027 RMK A01 T00110001  RH  093%=      5-min Rain = 0
KCR2 141133Z 10008KT 01/00 A3027 RMK A01 T00110001  RH  093%=      5-min Rain = 0
KCR2 141134Z 10008KT 01/00 A3027 RMK A01 T00110001  RH  093%=      5-min Rain = 0
KCR2 141135Z 10010KT 01/00 A3027 RMK A01 T00110001  RH  093%=      5-min Rain = 0
KCR2 141136Z 10009KT 01/00 A3027 RMK A01 T00110001  RH  093%=      5-min Rain = 0
KCR2 141137Z 11008KT 01/00 A3027 RMK A01 T00110001  RH  093%=      5-min Rain = 0
KCR2 141138Z 10009KT 01/00 A3027 RMK A01 T00110001  RH  093%=      5-min Rain = 0
KCR2 141139Z 11009KT 01/00 A3027 RMK A01 T00110001  RH  093%=      5-min Rain = 0
KCR2 141140Z 11009KT 01/00 A3027 RMK A01 T00110001  RH  093%=      5-min Rain = 0
KCR2 141141Z 11009KT 01/00 A3027 RMK A01 T00110000  RH  093%=      5-min Rain = 0
KCR2 141142Z 11009KT 01/00 A3027 RMK A01 T00100000  RH  093%=      5-min Rain = 0
KCR2 141143Z 11010KT 01/00 A3027 RMK A01 T00100000  RH  093%=      5-min Rain = 0
KCR2 141144Z 11009KT 01/00 A3027 RMK A01 T00110000  RH  093%=      5-min Rain = 0
KCR2 141145Z 10009KT 01/00 A3027 RMK A01 T00110000  RH  093%=      5-min Rain = 0
KCR2 141146Z 11009KT 01/00 A3027 RMK A01 T00110001  RH  093%=      5-min Rain = 0
KCR2 141147Z 10009KT 01/00 A3028 RMK A01 T00100000  RH  093%=      5-min Rain = 0
KCR2 141148Z 11008KT 01/00 A3028 RMK A01 T00100000  RH  093%=      5-min Rain = 0
KCR2 141149Z 11008KT 01/00 A3028 RMK A01 T001000-0  RH  093%=      5-min Rain = 0
KCR2 141150Z 10007KT 01/00 A3028 RMK A01 T001000-0  RH  093%=      5-min Rain = 0
KCR2 141151Z 10008KT 01/00 A3028 RMK A01 T001000-0  RH  093%=      5-min Rain = 0
KCR2 141152Z 10009KT 01/00 A3028 RMK A01 T001000-0  RH  093%=      5-min Rain = 0
KCR2 141153Z 10008KT 01/00 A3028 RMK A01 T00100000  RH  093%=      5-min Rain = 0
KCR2 141154Z 11008KT 01/00 A3028 RMK A01 T000900-0  RH  093%=      5-min Rain = 0
KCR2 141155Z 10008KT 01/M00 A3028 RMK A01 T00091001  RH  093%=      5-min Rain = 0
KCR2 141156Z 10008KT 01/00 A3028 RMK A01 T000900-0  RH  093%=      5-min Rain = 0
KCR2 141157Z 11008KT 01/00 A3028 RMK A01 T000900-0  RH  093%=      5-min Rain = 0
KCR2 141158Z 10008KT 01/00 A3028 RMK A01 T000900-0  RH  094%=      5-min Rain = 0
KCR2 141159Z 10007KT 01/00 A3028 RMK A01 T000900-0  RH  093%=      5-min Rain = 0
KCR2 141200Z 10009KT 01/00 A3028 RMK A01 T000900-0  RH  094%=      5-min Rain = 0
KCR2 141201Z 10009KT 01/00 A3028 RMK A01 T000900-0  RH  094%=      5-min Rain = 0
KCR2 141202Z 10008KT 01/M00 A3028 RMK A01 T00091001  RH  093%=      5-min Rain = 0
KCR2 141203Z 10008KT 01/00 A3028 RMK A01 T000900-0  RH  093%=      5-min Rain = 0
KCR2 141204Z 11008KT 01/M00 A3028 RMK A01 T00091001  RH  093%=      5-min Rain = 0
KCR2 141205Z 11009KT 01/M00 A3028 RMK A01 T00091001  RH  093%=      5-min Rain = 0
KCR2 141206Z 11008KT 01/M00 A3028 RMK A01 T00091001  RH  093%=      5-min Rain = 0
KCR2 141207Z 11008KT 01/M00 A3028 RMK A01 T00091001  RH  094%=      5-min Rain = 0
KCR2 141208Z 11008KT 01/M00 A3028 RMK A01 T00091001  RH  093%=      5-min Rain = 0
KCR2 141209Z 11007KT 01/M00 A3028 RMK A01 T00091001  RH  093%=      5-min Rain = 0
KCR2 141210Z 10007KT 01/M00 A3028 RMK A01 T00081001  RH  093%=      5-min Rain = 0
KCR2 141211Z 10007KT 01/M00 A3028 RMK A01 T00081001  RH  093%=      5-min Rain = 0
KCR2 141212Z 11008KT 01/M00 A3028 RMK A01 T00081002  RH  094%=      5-min Rain = 0
KCR2 141213Z 10007KT 01/M00 A3028 RMK A01 T00081001  RH  094%=      5-min Rain = 0
KCR2 141214Z 10007KT 01/M00 A3028 RMK A01 T00081001  RH  094%=      5-min Rain = 0
KCR2 141215Z 11008KT 01/M00 A3028 RMK A01 T00071002  RH  094%=      5-min Rain = 0
KCR2 141216Z 11007KT 01/M00 A3028 RMK A01 T00071001  RH  094%=      5-min Rain = 0
KCR2 141217Z 11007KT 01/M00 A3028 RMK A01 T00071001  RH  094%=      5-min Rain = 0
KCR2 141218Z 11008KT 01/M00 A3028 RMK A01 T00071002  RH  094%=      5-min Rain = 0
KCR2 141219Z 11008KT 01/M00 A3028 RMK A01 T00071002  RH  094%=      5-min Rain = 0
KCR2 141220Z 11007KT 01/M00 A3028 RMK A01 T00071002  RH  094%=      5-min Rain = 0
KCR2 141221Z 11009KT 01/M00 A3028 RMK A01 T00071002  RH  094%=      5-min Rain = 0
KCR2 141222Z 11008KT 01/M00 A3028 RMK A01 T00071002  RH  094%=      5-min Rain = 0
KCR2 141223Z 11008KT 01/M00 A3028 RMK A01 T00071002  RH  094%=      5-min Rain = 0
KCR2 141224Z 11008KT 01/M00 A3028 RMK A01 T00071002  RH  094%=      5-min Rain = 0
KCR2 141225Z 11008KT 01/M00 A3028 RMK A01 T00071001  RH  094%=      5-min Rain = 0
KCR2 141226Z 11007KT 01/M00 A3028 RMK A01 T00071001  RH  094%=      5-min Rain = 0
KCR2 141227Z 10007KT 01/M00 A3028 RMK A01 T00071002  RH  094%=      5-min Rain = 0
KCR2 141228Z 10007KT 01/M00 A3028 RMK A01 T00071002  RH  094%=      5-min Rain = 0
KCR2 141229Z 10008KT 01/M00 A3028 RMK A01 T00061002  RH  094%=      5-min Rain = 0
KCR2 141230Z 10007KT 01/M00 A3028 RMK A01 T00061002  RH  094%=      5-min Rain = 0
KCR2 141231Z 10007KT 01/M00 A3028 RMK A01 T00061002  RH  094%=      5-min Rain = 0
KCR2 141232Z 10007KT 01/M00 A3028 RMK A01 T00071002  RH  094%=      5-min Rain = 0
KCR2 141233Z 09007KT 01/M00 A3028 RMK A01 T00061002  RH  094%=      5-min Rain = 0
KCR2 141234Z 10007KT 01/M00 A3028 RMK A01 T00061002  RH  094%=      5-min Rain = 0
KCR2 141235Z 10007KT 01/M00 A3028 RMK A01 T00061002  RH  095%=      5-min Rain = 0
KCR2 141236Z 10008KT 01/M00 A3028 RMK A01 T00061002  RH  095%=      5-min Rain = 0
KCR2 141237Z 10008KT 01/M00 A3029 RMK A01 T00061001  RH  095%=      5-min Rain = 0
KCR2 141238Z 10007KT 01/M00 A3029 RMK A01 T00061002  RH  095%=      5-min Rain = 0
KCR2 141239Z 10008KT 01/M00 A3029 RMK A01 T00061002  RH  095%=      5-min Rain = 0
KCR2 141240Z 10007KT 01/M00 A3029 RMK A01 T00061002  RH  095%=      5-min Rain = 0
KCR2 141241Z 10007KT 01/M00 A3029 RMK A01 T00061002  RH  095%=      5-min Rain = 0
KCR2 141242Z 11008KT 01/M00 A3029 RMK A01 T00051002  RH  095%=      5-min Rain = 0
KCR2 141243Z 10008KT 01/M00 A3029 RMK A01 T00061002  RH  095%=      5-min Rain = 0
KCR2 141244Z 10008KT 01/M00 A3029 RMK A01 T00051002  RH  095%=      5-min Rain = 0
KCR2 141245Z 10007KT 01/M00 A3029 RMK A01 T00061002  RH  095%=      5-min Rain = 0
KCR2 141246Z 10008KT 01/M00 A3029 RMK A01 T00051002  RH  095%=      5-min Rain = 0
KCR2 141247Z 11009KT 01/M00 A3029 RMK A01 T00051002  RH  095%=      5-min Rain = 0
KCR2 141248Z 11008KT 01/M00 A3029 RMK A01 T00061002  RH  095%=      5-min Rain = 0
KCR2 141249Z 10008KT 01/M00 A3029 RMK A01 T00051002  RH  095%=      5-min Rain = 0
KCR2 141250Z 10009KT 01/M00 A3029 RMK A01 T00061002  RH  095%=      5-min Rain = 0
KCR2 141251Z 11010KT 01/M00 A3029 RMK A01 T00051002  RH  095%=      5-min Rain = 0
KCR2 141252Z 11009KT 01/M00 A3029 RMK A01 T00061002  RH  095%=      5-min Rain = 0
KCR2 141253Z 11009KT 01/M00 A3029 RMK A01 T00061002  RH  095%=      5-min Rain = 0
KCR2 141254Z 10008KT 01/M00 A3029 RMK A01 T00051002  RH  095%=      5-min Rain = 0
KCR2 141255Z 11008KT 01/M00 A3029 RMK A01 T00051002  RH  095%=      5-min Rain = 0
KCR2 141256Z 11008KT 01/M00 A3029 RMK A01 T00061002  RH  095%=      5-min Rain = 0
KCR2 141257Z 11008KT 01/M00 A3029 RMK A01 T00051002  RH  095%=      5-min Rain = 0
KCR2 141258Z 11008KT 01/M00 A3029 RMK A01 T00061002  RH  095%=      5-min Rain = 0
KCR2 141259Z 11008KT 01/M00 A3029 RMK A01 T00051002  RH  095%=      5-min Rain = 0
KCR2 141300Z 11007KT 01/M00 A3029 RMK A01 T00051002  RH  095%=      5-min Rain = 0
KCR2 141301Z 11007KT 01/M00 A3029 RMK A01 T00061002  RH  094%=      5-min Rain = 0
KCR2 141302Z 10007KT 01/M00 A3029 RMK A01 T00061002  RH  094%=      5-min Rain = 0
KCR2 141303Z 10007KT 01/M00 A3029 RMK A01 T00051003  RH  094%=      5-min Rain = 0
KCR2 141304Z 10007KT 01/M00 A3029 RMK A01 T00051003  RH  094%=      5-min Rain = 0
KCR2 141305Z 10006KT 01/M00 A303 RMK A01 T00051003  RH  094%=      5-min Rain = 0
KCR2 141306Z 10006KT 01/M00 A303 RMK A01 T00051003  RH  094%=      5-min Rain = 0
KCR2 141307Z 10007KT 00/M00 A303 RMK A01 T00041003  RH  095%=      5-min Rain = 0
KCR2 141308Z 09007KT 01/M00 A303 RMK A01 T00051003  RH  095%=      5-min Rain = 0
KCR2 141309Z 09007KT 00/M00 A303 RMK A01 T00041003  RH  095%=      5-min Rain = 0
KCR2 141310Z 09006KT 00/M00 A303 RMK A01 T00041003  RH  095%=      5-min Rain = 0
KCR2 141311Z 09007KT 00/M00 A303 RMK A01 T00041003  RH  095%=      5-min Rain = 0
KCR2 141312Z 09007KT 00/M00 A303 RMK A01 T00041003  RH  095%=      5-min Rain = 0
KCR2 141313Z 10007KT 00/M00 A303 RMK A01 T00041003  RH  095%=      5-min Rain = 0
KCR2 141314Z 10007KT 00/M00 A303 RMK A01 T00041003  RH  095%=      5-min Rain = 0
KCR2 141315Z 10007KT 00/M00 A303 RMK A01 T00041003  RH  095%=      5-min Rain = 0
KCR2 141316Z 10007KT 00/M00 A303 RMK A01 T00041003  RH  095%=      5-min Rain = 0
KCR2 141317Z 10007KT 00/M00 A303 RMK A01 T00041003  RH  095%=      5-min Rain = 0
KCR2 141318Z 10007KT 00/M00 A303 RMK A01 T00041003  RH  095%=      5-min Rain = 0
KCR2 141319Z 10006KT 00/M00 A303 RMK A01 T00041002  RH  095%=      5-min Rain = 0
KCR2 141320Z 10007KT 00/M00 A303 RMK A01 T00041003  RH  095%=      5-min Rain = 0
KCR2 141321Z 10007KT 00/M00 A303 RMK A01 T00041003  RH  095%=      5-min Rain = 0
KCR2 141322Z 10008KT 00/M00 A303 RMK A01 T00041002  RH  095%=      5-min Rain = 0
KCR2 141323Z 09007KT 00/M00 A303 RMK A01 T00041002  RH  095%=      5-min Rain = 0
KCR2 141324Z 09008KT 01/M00 A303 RMK A01 T00051002  RH  095%=      5-min Rain = 0
KCR2 141325Z 09008KT 01/M00 A303 RMK A01 T00051002  RH  095%=      5-min Rain = 0
KCR2 141326Z 09007KT 01/M00 A303 RMK A01 T00051002  RH  095%=      5-min Rain = 0
KCR2 141327Z 09008KT 01/M00 A303 RMK A01 T00051002  RH  095%=      5-min Rain = 0
KCR2 141328Z 10008KT 01/M00 A303 RMK A01 T00051002  RH  095%=      5-min Rain = 0
KCR2 141329Z 10008KT 01/M00 A303 RMK A01 T00051002  RH  095%=      5-min Rain = 0
KCR2 141330Z 10008KT 01/M00 A303 RMK A01 T00051001  RH  095%=      5-min Rain = 0
KCR2 141331Z 10008KT 01/M00 A303 RMK A01 T00061001  RH  095%=      5-min Rain = 0
KCR2 141332Z 10009KT 01/M00 A303 RMK A01 T00061001  RH  095%=      5-min Rain = 0
KCR2 141333Z 10009KT 01/M00 A303 RMK A01 T00061001  RH  095%=      5-min Rain = 0
KCR2 141334Z 10008KT 01/M00 A303 RMK A01 T00061001  RH  095%=      5-min Rain = 0
KCR2 141335Z 10008KT 01/M00 A303 RMK A01 T00061001  RH  095%=      5-min Rain = 0
KCR2 141336Z 10008KT 01/M00 A303 RMK A01 T00061001  RH  095%=      5-min Rain = 0
KCR2 141337Z 10008KT 01/M00 A303 RMK A01 T00061001  RH  095%=      5-min Rain = 0
KCR2 141338Z 10008KT 01/M00 A303 RMK A01 T00061001  RH  095%=      5-min Rain = 0
KCR2 141339Z 10008KT 01/00 A303 RMK A01 T00070000  RH  095%=      5-min Rain = 0
KCR2 141340Z 10008KT 01/00 A303 RMK A01 T00070000  RH  095%=      5-min Rain = 0
KCR2 141341Z 10008KT 01/00 A303 RMK A01 T00070000  RH  095%=      5-min Rain = 0
KCR2 141342Z 10008KT 01/00 A303 RMK A01 T00080001  RH  095%=      5-min Rain = 0
KCR2 141343Z 10008KT 01/00 A303 RMK A01 T00080001  RH  095%=      5-min Rain = 0
KCR2 141344Z 10007KT 01/00 A303 RMK A01 T00080001  RH  095%=      5-min Rain = 0
KCR2 141345Z 10007KT 01/00 A303 RMK A01 T00090001  RH  095%=      5-min Rain = 0
KCR2 141346Z 10008KT 01/00 A3031 RMK A01 T00090002  RH  095%=      5-min Rain = 0
KCR2 141347Z 11007KT 01/00 A3031 RMK A01 T00090002  RH  095%=      5-min Rain = 0
KCR2 141348Z 10007KT 01/00 A3031 RMK A01 T00100002  RH  095%=      5-min Rain = 0
KCR2 141349Z 10008KT 01/00 A3031 RMK A01 T00100003  RH  095%=      5-min Rain = 0
KCR2 141350Z 11008KT 01/00 A3031 RMK A01 T00110003  RH  095%=      5-min Rain = 0
KCR2 141351Z 11008KT 01/00 A3031 RMK A01 T00110003  RH  095%=      5-min Rain = 0
KCR2 141352Z 11008KT 01/00 A3031 RMK A01 T00110003  RH  094%=      5-min Rain = 0
KCR2 141353Z 11008KT 01/00 A3031 RMK A01 T00120004  RH  094%=      5-min Rain = 0
KCR2 141354Z 11008KT 01/00 A3031 RMK A01 T00120003  RH  094%=      5-min Rain = 0
KCR2 141355Z 11008KT 01/00 A3031 RMK A01 T00120004  RH  094%=      5-min Rain = 0
KCR2 141356Z 11008KT 01/00 A3031 RMK A01 T00120004  RH  094%=      5-min Rain = 0
KCR2 141357Z 11008KT 01/00 A3031 RMK A01 T00130004  RH  094%=      5-min Rain = 0
KCR2 141358Z 11009KT 01/00 A3031 RMK A01 T00130004  RH  094%=      5-min Rain = 0
KCR2 141359Z 11009KT 01/00 A3031 RMK A01 T00130003  RH  093%=      5-min Rain = 0
KCR2 141400Z 11008KT 01/00 A3031 RMK A01 T00130003  RH  093%=      5-min Rain = 0
KCR2 141401Z 11009KT 01/00 A3031 RMK A01 T00130003  RH  093%=      5-min Rain = 0
KCR2 141402Z 11008KT 01/00 A3031 RMK A01 T00130004  RH  093%=      5-min Rain = 0
KCR2 141403Z 12007KT 01/00 A3031 RMK A01 T00140004  RH  093%=      5-min Rain = 0
KCR2 141404Z 12009KT 01/00 A3031 RMK A01 T00140004  RH  093%=      5-min Rain = 0
KCR2 141405Z 11008KT 01/00 A3031 RMK A01 T00140004  RH  093%=      5-min Rain = 0
KCR2 141406Z 11008KT 01/00 A3031 RMK A01 T00140004  RH  093%=      5-min Rain = 0
KCR2 141407Z 11008KT 01/00 A3031 RMK A01 T00140004  RH  093%=      5-min Rain = 0
KCR2 141408Z 11008KT 02/00 A3031 RMK A01 T00150004  RH  093%=      5-min Rain = 0
KCR2 141409Z 11008KT 02/00 A3031 RMK A01 T00150004  RH  093%=      5-min Rain = 0
KCR2 141410Z 11008KT 02/00 A3031 RMK A01 T00150004  RH  093%=      5-min Rain = 0
KCR2 141411Z 11009KT 02/01 A3031 RMK A01 T00150005  RH  093%=      5-min Rain = 0
KCR2 141412Z 11009KT 02/00 A3031 RMK A01 T00150004  RH  093%=      5-min Rain = 0
KCR2 141413Z 12009KT 02/00 A3031 RMK A01 T00150004  RH  093%=      5-min Rain = 0
KCR2 141414Z 12008KT 02/00 A3031 RMK A01 T00150004  RH  093%=      5-min Rain = 0
KCR2 141415Z 11009KT 02/00 A3031 RMK A01 T00150004  RH  093%=      5-min Rain = 0
KCR2 141416Z 11009KT 02/01 A3031 RMK A01 T00150005  RH  093%=      5-min Rain = 0
KCR2 141417Z 11008KT 02/01 A3031 RMK A01 T00160005  RH  093%=      5-min Rain = 0
KCR2 141418Z 11008KT 02/01 A3031 RMK A01 T00160005  RH  093%=      5-min Rain = 0
KCR2 141419Z 11008KT 02/01 A3031 RMK A01 T00160006  RH  093%=      5-min Rain = 0
KCR2 141420Z 11008KT 02/01 A3031 RMK A01 T00160005  RH  093%=      5-min Rain = 0
KCR2 141421Z 12009KT 02/01 A3031 RMK A01 T00160005  RH  092%=      5-min Rain = 0
KCR2 141422Z 12008KT 02/01 A3031 RMK A01 T00160005  RH  092%=      5-min Rain = 0
KCR2 141423Z 12009KT 02/01 A3031 RMK A01 T00160005  RH  092%=      5-min Rain = 0
KCR2 141424Z 12007KT 02/01 A3031 RMK A01 T00160005  RH  092%=      5-min Rain = 0
KCR2 141425Z 12009KT 02/01 A3031 RMK A01 T00170006  RH  093%=      5-min Rain = 0
KCR2 141426Z 12009KT 02/01 A3031 RMK A01 T00170006  RH  092%=      5-min Rain = 0
KCR2 141427Z 12008KT 02/01 A3031 RMK A01 T00170005  RH  092%=      5-min Rain = 0
KCR2 141428Z 12008KT 02/01 A3031 RMK A01 T00170005  RH  092%=      5-min Rain = 0
KCR2 141429Z 12008KT 02/01 A3031 RMK A01 T00170006  RH  092%=      5-min Rain = 0
KCR2 141430Z 13007KT 02/01 A3031 RMK A01 T00170006  RH  092%=      5-min Rain = 0
KCR2 141431Z 13008KT 02/01 A3031 RMK A01 T00180007  RH  092%=      5-min Rain = 0
KCR2 141432Z 13008KT 02/01 A3031 RMK A01 T00180007  RH  093%=      5-min Rain = 0
KCR2 141433Z 13008KT 02/01 A3031 RMK A01 T00180007  RH  092%=      5-min Rain = 0
KCR2 141434Z 13009KT 02/01 A3031 RMK A01 T00180007  RH  092%=      5-min Rain = 0
KCR2 141435Z 12009KT 02/01 A3031 RMK A01 T00190007  RH  092%=      5-min Rain = 0
KCR2 141436Z 13010KT 02/01 A3031 RMK A01 T00190007  RH  092%=      5-min Rain = 0
KCR2 141437Z 13009KT 02/01 A3031 RMK A01 T00190007  RH  092%=      5-min Rain = 0
KCR2 141438Z 13008KT 02/01 A3031 RMK A01 T00190008  RH  092%=      5-min Rain = 0
KCR2 141439Z 13009KT 02/01 A3031 RMK A01 T00190008  RH  092%=      5-min Rain = 0
KCR2 141440Z 13009KT 02/01 A3031 RMK A01 T00190007  RH  092%=      5-min Rain = 0
KCR2 141441Z 13009KT 02/01 A3031 RMK A01 T00190007  RH  092%=      5-min Rain = 0
KCR2 141442Z 14008KT 02/01 A3032 RMK A01 T00200008  RH  092%=      5-min Rain = 0
KCR2 141443Z 13009KT 02/01 A3032 RMK A01 T00200008  RH  092%=      5-min Rain = 0
KCR2 141444Z 13010KT 02/01 A3032 RMK A01 T00200008  RH  092%=      5-min Rain = 0
KCR2 141445Z 13010KT 02/01 A3032 RMK A01 T00200008  RH  092%=      5-min Rain = 0
KCR2 141446Z 13010KT 02/01 A3032 RMK A01 T00200007  RH  092%=      5-min Rain = 0
KCR2 141447Z 13007KT 02/01 A3032 RMK A01 T00200007  RH  091%=      5-min Rain = 0
KCR2 141448Z 13009KT 02/01 A3032 RMK A01 T00200007  RH  092%=      5-min Rain = 0
KCR2 141449Z 13010KT 02/01 A3032 RMK A01 T00200008  RH  092%=      5-min Rain = 0
KCR2 141450Z 14009KT 02/01 A3032 RMK A01 T00200007  RH  091%=      5-min Rain = 0
KCR2 141451Z 13009KT 02/01 A3032 RMK A01 T00200007  RH  091%=      5-min Rain = 0
KCR2 141452Z 13008KT 02/01 A3032 RMK A01 T00200008  RH  091%=      5-min Rain = 0
KCR2 141453Z 13007KT 02/01 A3032 RMK A01 T00200008  RH  092%=      5-min Rain = 0
KCR2 141454Z 14008KT 02/01 A3032 RMK A01 T00210008  RH  092%=      5-min Rain = 0
KCR2 141455Z 13009KT 02/01 A3032 RMK A01 T00200008  RH  091%=      5-min Rain = 0
KCR2 141456Z 14008KT 02/01 A3032 RMK A01 T00210007  RH  091%=      5-min Rain = 0
KCR2 141457Z 13008KT 02/01 A3032 RMK A01 T00210007  RH  091%=      5-min Rain = 0
KCR2 141458Z 13007KT 02/01 A3032 RMK A01 T00210008  RH  091%=      5-min Rain = 0
KCR2 141459Z 13008KT 02/01 A3032 RMK A01 T00210008  RH  091%=      5-min Rain = 0
KCR2 141500Z 13009KT 02/01 A3032 RMK A01 T00220008  RH  091%=      5-min Rain = 0
KCR2 141501Z 14008KT 02/01 A3032 RMK A01 T00210008  RH  091%=      5-min Rain = 0
KCR2 141502Z 14007KT 02/01 A3032 RMK A01 T00220009  RH  091%=      5-min Rain = 0
KCR2 141503Z 14008KT 02/01 A3032 RMK A01 T00220009  RH  091%=      5-min Rain = 0
KCR2 141504Z 14008KT 02/01 A3032 RMK A01 T00220009  RH  091%=      5-min Rain = 0
KCR2 141505Z 14009KT 02/01 A3032 RMK A01 T00220009  RH  091%=      5-min Rain = 0
KCR2 141506Z 14008KT 02/01 A3032 RMK A01 T00230009  RH  091%=      5-min Rain = 0
KCR2 141507Z 14008KT 02/01 A3032 RMK A01 T00220008  RH  090%=      5-min Rain = 0
KCR2 141508Z 14007KT 02/01 A3032 RMK A01 T00220008  RH  090%=      5-min Rain = 0
KCR2 141509Z 14008KT 02/01 A3032 RMK A01 T00230009  RH  091%=      5-min Rain = 0
KCR2 141510Z 14010KT 02/01 A3032 RMK A01 T00230009  RH  090%=      5-min Rain = 0
KCR2 141511Z 15011KT 02/01 A3032 RMK A01 T00240010  RH  090%=      5-min Rain = 0
KCR2 141512Z 15012KT 02/01 A3032 RMK A01 T00240009  RH  090%=      5-min Rain = 0
KCR2 141513Z 14011KT 02/01 A3032 RMK A01 T00240008  RH  089%=      5-min Rain = 0
KCR2 141514Z 14012KT 02/01 A3032 RMK A01 T00240008  RH  089%=      5-min Rain = 0
KCR2 141515Z 14011KT 02/01 A3032 RMK A01 T00240008  RH  089%=      5-min Rain = 0
KCR2 141516Z 14011KT 02/01 A3032 RMK A01 T00240008  RH  089%=      5-min Rain = 0
KCR2 141517Z 14010KT 02/01 A3032 RMK A01 T00240008  RH  089%=      5-min Rain = 0
KCR2 141518Z 15010KT 02/01 A3032 RMK A01 T00240007  RH  089%=      5-min Rain = 0
KCR2 141519Z 15012KT 03/01 A3032 RMK A01 T00250008  RH  089%=      5-min Rain = 0
KCR2 141520Z 15012KT 03/01 A3032 RMK A01 T00250007  RH  088%=      5-min Rain = 0
KCR2 141521Z 15011KT 03/01 A3032 RMK A01 T00250008  RH  089%=      5-min Rain = 0
KCR2 141522Z 14011KT 03/01 A3032 RMK A01 T00250008  RH  089%=      5-min Rain = 0
KCR2 141523Z 14011KT 03/01 A3032 RMK A01 T00260008  RH  088%=      5-min Rain = 0
KCR2 141524Z 15009KT 03/01 A3032 RMK A01 T00250008  RH  088%=      5-min Rain = 0
KCR2 141525Z 14009KT 03/01 A3032 RMK A01 T00260010  RH  089%=      5-min Rain = 0
KCR2 141526Z 14009KT 03/01 A3032 RMK A01 T00270011  RH  089%=      5-min Rain = 0
KCR2 141527Z 14009KT 03/01 A3032 RMK A01 T00270010  RH  089%=      5-min Rain = 0
KCR2 141528Z 15010KT 03/01 A3032 RMK A01 T00270009  RH  088%=      5-min Rain = 0
KCR2 141529Z 14011KT 03/01 A3032 RMK A01 T00270009  RH  088%=      5-min Rain = 0
KCR2 141530Z 14011KT 03/01 A3032 RMK A01 T00270009  RH  088%=      5-min Rain = 0
KCR2 141531Z 14012KT 03/01 A3032 RMK A01 T00270009  RH  088%=      5-min Rain = 0
KCR2 141532Z 14012KT 03/01 A3032 RMK A01 T00270008  RH  087%=      5-min Rain = 0
KCR2 141533Z 14011KT 03/01 A3032 RMK A01 T00270008  RH  088%=      5-min Rain = 0
KCR2 141534Z 14011KT 03/01 A3032 RMK A01 T00260008  RH  088%=      5-min Rain = 0
KCR2 141535Z 13010KT 03/01 A3032 RMK A01 T00270008  RH  088%=      5-min Rain = 0
KCR2 141536Z 14010KT 03/01 A3032 RMK A01 T00270009  RH  088%=      5-min Rain = 0
KCR2 141537Z 14009KT 03/01 A3032 RMK A01 T00280009  RH  088%=      5-min Rain = 0
KCR2 141538Z 14010KT 03/01 A3032 RMK A01 T00280009  RH  087%=      5-min Rain = 0
KCR2 141539Z 14010KT 03/01 A3032 RMK A01 T00280009  RH  087%=      5-min Rain = 0
KCR2 141540Z 14010KT 03/01 A3032 RMK A01 T00280009  RH  087%=      5-min Rain = 0
KCR2 141541Z 14011KT 03/01 A3032 RMK A01 T00280009  RH  087%=      5-min Rain = 0
KCR2 141542Z 14010KT 03/01 A3032 RMK A01 T00290010  RH  087%=      5-min Rain = 0
KCR2 141543Z 14010KT 03/01 A3032 RMK A01 T00290010  RH  087%=      5-min Rain = 0
KCR2 141544Z 13010KT 03/01 A3032 RMK A01 T00300011  RH  087%=      5-min Rain = 0
KCR2 141545Z 14010KT 03/01 A3032 RMK A01 T00300010  RH  087%=      5-min Rain = 0
KCR2 141546Z 14009KT 03/01 A3032 RMK A01 T00290009  RH  087%=      5-min Rain = 0
KCR2 141547Z 14010KT 03/01 A3032 RMK A01 T00300010  RH  087%=      5-min Rain = 0
KCR2 141548Z 14009KT 03/01 A3032 RMK A01 T00300010  RH  087%=      5-min Rain = 0
KCR2 141549Z 13010KT 03/01 A3032 RMK A01 T00310011  RH  087%=      5-min Rain = 0
KCR2 141550Z 14009KT 03/01 A3032 RMK A01 T00310011  RH  087%=      5-min Rain = 0
KCR2 141551Z 14011KT 03/01 A3032 RMK A01 T00320012  RH  087%=      5-min Rain = 0
KCR2 141552Z 13010KT 03/01 A3032 RMK A01 T00310009  RH  086%=      5-min Rain = 0
KCR2 141553Z 14010KT 03/01 A3032 RMK A01 T00310010  RH  086%=      5-min Rain = 0
KCR2 141554Z 14009KT 03/01 A3032 RMK A01 T00310011  RH  086%=      5-min Rain = 0
KCR2 141555Z 15010KT 03/01 A3032 RMK A01 T00320012  RH  087%=      5-min Rain = 0
KCR2 141556Z 15011KT 03/01 A3032 RMK A01 T00320011  RH  086%=      5-min Rain = 0
KCR2 141557Z 15010KT 03/01 A3032 RMK A01 T00320009  RH  085%=      5-min Rain = 0
KCR2 141558Z 15010KT 03/01 A3032 RMK A01 T00310010  RH  086%=      5-min Rain = 0
KCR2 141559Z 14008KT 03/01 A3032 RMK A01 T00320012  RH  086%=      5-min Rain = 0
KCR2 141600Z 14010KT 03/01 A3032 RMK A01 T00330013  RH  087%=      5-min Rain = 0
KCR2 141601Z 14011KT 03/01 A3032 RMK A01 T00330012  RH  086%=      5-min Rain = 0
KCR2 141602Z 14011KT 03/01 A3032 RMK A01 T00330011  RH  085%=      5-min Rain = 0
KCR2 141603Z 14009KT 03/01 A3032 RMK A01 T00330010  RH  085%=      5-min Rain = 0
KCR2 141604Z 15010KT 03/01 A3032 RMK A01 T00330011  RH  085%=      5-min Rain = 0
KCR2 141605Z 15011KT 03/01 A3032 RMK A01 T00340011  RH  085%=      5-min Rain = 0
KCR2 141606Z 15011KT 03/01 A3032 RMK A01 T00340011  RH  085%=      5-min Rain = 0
KCR2 141607Z 14010KT 03/01 A3032 RMK A01 T00340010  RH  085%=      5-min Rain = 0
KCR2 141608Z 14009KT 03/01 A3032 RMK A01 T00340011  RH  085%=      5-min Rain = 0
KCR2 141609Z 15010KT 04/01 A3032 RMK A01 T00350013  RH  085%=      5-min Rain = 0
KCR2 141610Z 15011KT 04/01 A3032 RMK A01 T00350011  RH  084%=      5-min Rain = 0
KCR2 141611Z 15009KT 04/01 A3032 RMK A01 T00350011  RH  084%=      5-min Rain = 0
KCR2 141612Z 15007KT 03/01 A3032 RMK A01 T00340010  RH  084%=      5-min Rain = 0
KCR2 141613Z 15008KT 04/01 A3032 RMK A01 T00350012  RH  085%=      5-min Rain = 0
KCR2 141614Z 13011KT 04/01 A3032 RMK A01 T00350012  RH  085%=      5-min Rain = 0
KCR2 141615Z 13012KT 04/01 A3032 RMK A01 T00350011  RH  084%=      5-min Rain = 0
KCR2 141616Z 14011KT 04/01 A3032 RMK A01 T00350011  RH  084%=      5-min Rain = 0
KCR2 141617Z 14010KT 04/01 A3032 RMK A01 T00350011  RH  084%=      5-min Rain = 0
KCR2 141618Z 15008KT 04/01 A3032 RMK A01 T00350011  RH  084%=      5-min Rain = 0
KCR2 141619Z 15009KT 04/01 A3031 RMK A01 T00360013  RH  085%=      5-min Rain = 0
KCR2 141620Z 15011KT 04/01 A3031 RMK A01 T00370012  RH  084%=      5-min Rain = 0
KCR2 141621Z 14011KT 04/01 A3031 RMK A01 T00370011  RH  083%=      5-min Rain = 0
KCR2 141622Z 15010KT 04/01 A3031 RMK A01 T00370011  RH  083%=      5-min Rain = 0
KCR2 141623Z 15011KT 04/01 A3031 RMK A01 T00370009  RH  082%=      5-min Rain = 0
KCR2 141624Z 15009KT 04/01 A3031 RMK A01 T00360009  RH  082%=      5-min Rain = 0
KCR2 141625Z 15008KT 04/01 A3031 RMK A01 T00360010  RH  083%=      5-min Rain = 0
KCR2 141626Z 15008KT 04/01 A3031 RMK A01 T00360010  RH  083%=      5-min Rain = 0
KCR2 141627Z 14010KT 04/01 A3032 RMK A01 T00370011  RH  084%=      5-min Rain = 0
KCR2 141628Z 15009KT 04/01 A3032 RMK A01 T00370011  RH  083%=      5-min Rain = 0
KCR2 141629Z 14009KT 04/01 A3031 RMK A01 T00380013  RH  084%=      5-min Rain = 0
KCR2 141630Z 14010KT 04/01 A3031 RMK A01 T00390013  RH  083%=      5-min Rain = 0
KCR2 141631Z 14010KT 04/01 A3031 RMK A01 T00390012  RH  082%=      5-min Rain = 0
KCR2 141632Z 15011KT 04/01 A3031 RMK A01 T00390011  RH  082%=      5-min Rain = 0
KCR2 141633Z 15009KT 04/01 A3031 RMK A01 T00390011  RH  082%=      5-min Rain = 0
KCR2 141634Z 15008KT 04/01 A3031 RMK A01 T00390011  RH  082%=      5-min Rain = 0
KCR2 141635Z 15009KT 04/01 A3031 RMK A01 T00400011  RH  082%=      5-min Rain = 0
KCR2 141636Z 15008KT 04/01 A3031 RMK A01 T00400012  RH  082%=      5-min Rain = 0
KCR2 141637Z 15010KT 04/02 A3031 RMK A01 T00410016  RH  083%=      5-min Rain = 0
KCR2 141638Z 14007KT 04/01 A3031 RMK A01 T00420012  RH  081%=      5-min Rain = 0
KCR2 141639Z 15008KT 04/01 A3031 RMK A01 T00410012  RH  081%=      5-min Rain = 0
KCR2 141640Z 16008KT 04/01 A3031 RMK A01 T00410012  RH  081%=      5-min Rain = 0
KCR2 141641Z 16008KT 04/01 A3031 RMK A01 T00420012  RH  081%=      5-min Rain = 0
KCR2 141642Z 17009KT 04/01 A3031 RMK A01 T00420013  RH  081%=      5-min Rain = 0
KCR2 141643Z 16007KT 04/01 A3031 RMK A01 T00420011  RH  080%=      5-min Rain = 0
KCR2 141644Z 15006KT 04/01 A3031 RMK A01 T00420011  RH  080%=      5-min Rain = 0
KCR2 141645Z 15007KT 04/01 A3031 RMK A01 T00420012  RH  081%=      5-min Rain = 0
KCR2 141646Z 15007KT 04/01 A3031 RMK A01 T00420013  RH  081%=      5-min Rain = 0
KCR2 141647Z 15006KT 04/01 A3031 RMK A01 T00420011  RH  080%=      5-min Rain = 0
KCR2 141648Z 15008KT 04/01 A3031 RMK A01 T00420013  RH  081%=      5-min Rain = 0
KCR2 141649Z 17008KT 04/01 A3031 RMK A01 T00430013  RH  081%=      5-min Rain = 0
KCR2 141650Z 18008KT 04/01 A3031 RMK A01 T00430013  RH  080%=      5-min Rain = 0
KCR2 141651Z 18007KT 04/01 A3031 RMK A01 T00440013  RH  080%=      5-min Rain = 0
KCR2 141652Z 18009KT 05/02 A3031 RMK A01 T00450017  RH  082%=      5-min Rain = 0
KCR2 141653Z 18009KT 05/01 A3031 RMK A01 T00460014  RH  080%=      5-min Rain = 0
KCR2 141654Z 17007KT 05/01 A3031 RMK A01 T00450014  RH  080%=      5-min Rain = 0
KCR2 141655Z 18008KT 05/02 A3031 RMK A01 T00460016  RH  081%=      5-min Rain = 0
KCR2 141656Z 18008KT 05/01 A3031 RMK A01 T00460013  RH  079%=      5-min Rain = 0
KCR2 141657Z 18009KT 05/01 A3031 RMK A01 T00450014  RH  080%=      5-min Rain = 0
KCR2 141658Z 19011KT 05/01 A3031 RMK A01 T00460013  RH  079%=      5-min Rain = 0
KCR2 141659Z 18010KT 05/01 A3031 RMK A01 T00450014  RH  080%=      5-min Rain = 0
KCR2 141700Z 17008KT 05/01 A3031 RMK A01 T00460013  RH  079%=      5-min Rain = 0
KCR2 141701Z 17010KT 05/01 A3031 RMK A01 T00460012  RH  079%=      5-min Rain = 0
KCR2 141702Z 16010KT 05/01 A3031 RMK A01 T00450011  RH  079%=      5-min Rain = 0
KCR2 141703Z 17012KT 05/01 A3031 RMK A01 T00450012  RH  079%=      5-min Rain = 0
KCR2 141704Z 17011KT 05/01 A3031 RMK A01 T00450013  RH  079%=      5-min Rain = 0
KCR2 141705Z 17010KT 05/01 A3031 RMK A01 T00460014  RH  079%=      5-min Rain = 0
KCR2 141706Z 17009KT 05/01 A3031 RMK A01 T00460012  RH  078%=      5-min Rain = 0
KCR2 141707Z 17008KT 05/01 A3031 RMK A01 T00460012  RH  078%=      5-min Rain = 0
KCR2 141708Z 16009KT 05/02 A3031 RMK A01 T00470016  RH  081%=      5-min Rain = 0
KCR2 141709Z 17010KT 05/02 A3031 RMK A01 T00490018  RH  080%=      5-min Rain = 0
KCR2 141710Z 19009KT 05/02 A3031 RMK A01 T00500017  RH  079%=      5-min Rain = 0
KCR2 141711Z 19010KT 05/01 A3031 RMK A01 T00490014  RH  078%=      5-min Rain = 0
KCR2 141712Z 19008KT 05/01 A3031 RMK A01 T00480014  RH  078%=      5-min Rain = 0
KCR2 141713Z 18010KT 05/01 A3031 RMK A01 T00480014  RH  078%=      5-min Rain = 0
KCR2 141714Z 18009KT 05/01 A3031 RMK A01 T00480014  RH  078%=      5-min Rain = 0
KCR2 141715Z 19009KT 05/02 A3031 RMK A01 T00490015  RH  079%=      5-min Rain = 0
KCR2 141716Z 18009KT 05/02 A3031 RMK A01 T00500018  RH  080%=      5-min Rain = 0
KCR2 141717Z 18007KT 05/02 A3031 RMK A01 T00510016  RH  078%=      5-min Rain = 0
KCR2 141718Z 18008KT 05/02 A3031 RMK A01 T00510016  RH  078%=      5-min Rain = 0
KCR2 141719Z 18015KT 05/02 A3031 RMK A01 T00510017  RH  078%=      5-min Rain = 0
KCR2 141720Z 19013KT 05/02 A3031 RMK A01 T00500015  RH  078%=      5-min Rain = 0
KCR2 141721Z 19011KT 05/02 A3031 RMK A01 T00500015  RH  078%=      5-min Rain = 0
KCR2 141722Z 20011KT 05/02 A3031 RMK A01 T00490015  RH  079%=      5-min Rain = 0
KCR2 141723Z 19011KT 05/01 A3031 RMK A01 T00490014  RH  078%=      5-min Rain = 0
KCR2 141724Z 16011KT 05/01 A3031 RMK A01 T00490014  RH  078%=      5-min Rain = 0
KCR2 141725Z 16009KT 05/01 A3031 RMK A01 T00490014  RH  078%=      5-min Rain = 0
KCR2 141726Z 16009KT 05/02 A3031 RMK A01 T00500016  RH  079%=      5-min Rain = 0
KCR2 141727Z 18007KT 05/02 A3031 RMK A01 T00510015  RH  077%=      5-min Rain = 0
KCR2 141728Z 17009KT 05/02 A3031 RMK A01 T00510015  RH  078%=      5-min Rain = 0
KCR2 141729Z 18011KT 05/02 A3031 RMK A01 T00510015  RH  078%=      5-min Rain = 0
KCR2 141730Z 18013KT 05/01 A3031 RMK A01 T00510014  RH  077%=      5-min Rain = 0
KCR2 141731Z 19013KT 05/01 A3031 RMK A01 T00510014  RH  077%=      5-min Rain = 0
KCR2 141732Z 19012KT 05/02 A3031 RMK A01 T00510015  RH  077%=      5-min Rain = 0
KCR2 141733Z 18011KT 05/02 A3031 RMK A01 T00510016  RH  078%=      5-min Rain = 0
KCR2 141734Z 18011KT 05/02 A3031 RMK A01 T00520016  RH  077%=      5-min Rain = 0
KCR2 141735Z 19012KT 05/02 A3031 RMK A01 T00530017  RH  078%=      5-min Rain = 0
KCR2 141736Z 20011KT 05/02 A3031 RMK A01 T00530017  RH  077%=      5-min Rain = 0
KCR2 141737Z 19010KT 05/02 A3031 RMK A01 T00540017  RH  077%=      5-min Rain = 0
KCR2 141738Z 18011KT 06/02 A3031 RMK A01 T00550020  RH  078%=      5-min Rain = 0
KCR2 141739Z 18011KT 06/02 A3031 RMK A01 T00570021  RH  077%=      5-min Rain = 0
KCR2 141740Z 18011KT 06/02 A303 RMK A01 T00580019  RH  076%=      5-min Rain = 0
KCR2 141741Z 18010KT 06/02 A303 RMK A01 T00560016  RH  075%=      5-min Rain = 0
KCR2 141742Z 18011KT 06/02 A303 RMK A01 T00560018  RH  076%=      5-min Rain = 0
KCR2 141743Z 19012KT 06/02 A303 RMK A01 T00590023  RH  077%=      5-min Rain = 0
KCR2 141744Z 19013KT 06/02 A303 RMK A01 T00600021  RH  076%=      5-min Rain = 0
KCR2 141745Z 20011KT 06/02 A303 RMK A01 T00590018  RH  075%=      5-min Rain = 0
KCR2 141746Z 19011KT 06/02 A303 RMK A01 T00590018  RH  075%=      5-min Rain = 0
KCR2 141747Z 19011KT 06/02 A303 RMK A01 T00580017  RH  075%=      5-min Rain = 0
KCR2 141748Z 18009KT 06/01 A303 RMK A01 T00560014  RH  074%=      5-min Rain = 0
KCR2 141749Z 18010KT 06/02 A303 RMK A01 T00560016  RH  075%=      5-min Rain = 0
KCR2 141750Z 17007KT 06/02 A303 RMK A01 T00570018  RH  076%=      5-min Rain = 0
KCR2 141751Z 16007KT 06/02 A303 RMK A01 T00600023  RH  077%=      5-min Rain = 0
KCR2 141752Z 17006KT 06/02 A303 RMK A01 T00620019  RH  074%=      5-min Rain = 0
KCR2 141753Z 17007KT 06/01 A303 RMK A01 T00620014  RH  072%=      5-min Rain = 0
KCR2 141754Z 16009KT 06/02 A303 RMK A01 T00620019  RH  074%=      5-min Rain = 0
KCR2 141755Z 16009KT 06/02 A303 RMK A01 T00620017  RH  073%=      5-min Rain = 0
KCR2 141756Z 16008KT 06/02 A303 RMK A01 T00610017  RH  073%=      5-min Rain = 0
KCR2 141757Z 17009KT 06/02 A303 RMK A01 T00610018  RH  074%=      5-min Rain = 0
KCR2 141758Z 17009KT 06/02 A303 RMK A01 T00610018  RH  074%=      5-min Rain = 0
KCR2 141759Z 16010KT 06/02 A303 RMK A01 T00610019  RH  075%=      5-min Rain = 0
KCR2 141800Z 16008KT 06/02 A303 RMK A01 T00600018  RH  074%=      5-min Rain = 0
KCR2 141801Z 15010KT 06/02 A303 RMK A01 T00590017  RH  074%=      5-min Rain = 0
KCR2 141802Z 20008KT 06/02 A303 RMK A01 T00610022  RH  076%=      5-min Rain = 0
KCR2 141803Z 17006KT 06/02 A303 RMK A01 T00630022  RH  075%=      5-min Rain = 0
KCR2 141804Z 18005KT 07/03 A303 RMK A01 T00660025  RH  075%=      5-min Rain = 0
KCR2 141805Z 19005KT 07/02 A303 RMK A01 T00660018  RH  071%=      5-min Rain = 0
KCR2 141806Z 20005KT 06/02 A303 RMK A01 T00640017  RH  072%=      5-min Rain = 0
KCR2 141807Z 19005KT 06/02 A3029 RMK A01 T00630018  RH  073%=      5-min Rain = 0
KCR2 141808Z 18005KT 06/02 A3029 RMK A01 T00630018  RH  073%=      5-min Rain = 0
KCR2 141809Z 17007KT 06/02 A3029 RMK A01 T00630019  RH  073%=      5-min Rain = 0
KCR2 141810Z 16008KT 07/02 A3029 RMK A01 T00650017  RH  072%=      5-min Rain = 0
KCR2 141811Z 18011KT 07/03 A3029 RMK A01 T00680026  RH  074%=      5-min Rain = 0
KCR2 141812Z 18011KT 07/03 A3029 RMK A01 T00710025  RH  072%=      5-min Rain = 0
KCR2 141813Z 20010KT 07/02 A3029 RMK A01 T00700021  RH  071%=      5-min Rain = 0
KCR2 141814Z 18011KT 07/02 A3029 RMK A01 T00700023  RH  072%=      5-min Rain = 0
KCR2 141815Z 19013KT 07/03 A3029 RMK A01 T00720026  RH  072%=      5-min Rain = 0
KCR2 141816Z 19011KT 07/02 A3029 RMK A01 T00720023  RH  071%=      5-min Rain = 0
KCR2 141817Z 18009KT 07/02 A3029 RMK A01 T00700021  RH  071%=      5-min Rain = 0
KCR2 141818Z 18008KT 07/02 A3029 RMK A01 T00690019  RH  071%=      5-min Rain = 0
KCR2 141819Z 16007KT 07/02 A3029 RMK A01 T00670017  RH  070%=      5-min Rain = 0
KCR2 141820Z 15007KT 07/02 A3029 RMK A01 T00660016  RH  070%=      5-min Rain = 0
KCR2 141821Z 16008KT 07/02 A3029 RMK A01 T00660018  RH  071%=      5-min Rain = 0
KCR2 141822Z 14006KT 07/02 A3029 RMK A01 T00660016  RH  070%=      5-min Rain = 0
KCR2 141823Z 16006KT 07/02 A3029 RMK A01 T00660018  RH  071%=      5-min Rain = 0
KCR2 141824Z 15007KT 07/02 A3028 RMK A01 T00680022  RH  072%=      5-min Rain = 0
KCR2 141825Z 16008KT 07/02 A3028 RMK A01 T00700021  RH  071%=      5-min Rain = 0
KCR2 141826Z 17012KT 07/02 A3028 RMK A01 T00710023  RH  071%=      5-min Rain = 0
KCR2 141827Z 16010KT 07/03 A3028 RMK A01 T00740025  RH  071%=      5-min Rain = 0
KCR2 141828Z 17010KT 08/03 A3028 RMK A01 T00750025  RH  071%=      5-min Rain = 0
KCR2 141829Z 18008KT 07/02 A3028 RMK A01 T00740023  RH  070%=      5-min Rain = 0
KCR2 141830Z 18007KT 07/02 A3028 RMK A01 T00740019  RH  068%=      5-min Rain = 0
KCR2 141831Z 16006KT 07/02 A3028 RMK A01 T00710018  RH  069%=      5-min Rain = 0
KCR2 141832Z 16007KT 07/02 A3028 RMK A01 T00710020  RH  070%=      5-min Rain = 0
KCR2 141833Z 15007KT 07/02 A3028 RMK A01 T00730022  RH  070%=      5-min Rain = 0
KCR2 141834Z 14007KT 07/02 A3028 RMK A01 T00730022  RH  070%=      5-min Rain = 0
KCR2 141835Z 14008KT 08/02 A3028 RMK A01 T00750023  RH  070%=      5-min Rain = 0
KCR2 141836Z 17009KT 08/02 A3028 RMK A01 T00750021  RH  069%=      5-min Rain = 0
KCR2 141837Z 16009KT 08/02 A3028 RMK A01 T00750021  RH  069%=      5-min Rain = 0
KCR2 141838Z 15010KT 08/02 A3028 RMK A01 T00760024  RH  070%=      5-min Rain = 0
KCR2 141839Z 16007KT 08/02 A3028 RMK A01 T00760020  RH  068%=      5-min Rain = 0
KCR2 141840Z 18007KT 07/02 A3028 RMK A01 T00740018  RH  068%=      5-min Rain = 0
KCR2 141841Z 17007KT 07/02 A3028 RMK A01 T00740021  RH  069%=      5-min Rain = 0
KCR2 141842Z 15009KT 08/02 A3027 RMK A01 T00750021  RH  069%=      5-min Rain = 0
KCR2 141843Z 16008KT 08/02 A3027 RMK A01 T00760023  RH  069%=      5-min Rain = 0
KCR2 141844Z 17007KT 08/02 A3027 RMK A01 T00770021  RH  068%=      5-min Rain = 0
KCR2 141845Z 18009KT 08/02 A3027 RMK A01 T00780024  RH  069%=      5-min Rain = 0
KCR2 141846Z 17009KT 08/02 A3027 RMK A01 T00780021  RH  067%=      5-min Rain = 0
KCR2 141847Z 15010KT 08/02 A3027 RMK A01 T00790024  RH  068%=      5-min Rain = 0
KCR2 141848Z 15010KT 08/02 A3027 RMK A01 T00800023  RH  067%=      5-min Rain = 0
KCR2 141849Z 15006KT 08/02 A3027 RMK A01 T00790021  RH  066%=      5-min Rain = 0
KCR2 141850Z 15009KT 08/02 A3027 RMK A01 T00790024  RH  068%=      5-min Rain = 0
KCR2 141851Z 14011KT 08/02 A3027 RMK A01 T00810023  RH  067%=      5-min Rain = 0
KCR2 141852Z 14011KT 08/02 A3027 RMK A01 T00800023  RH  067%=      5-min Rain = 0
KCR2 141853Z 14009KT 08/02 A3027 RMK A01 T00790023  RH  067%=      5-min Rain = 0
KCR2 141854Z 13007KT 08/02 A3027 RMK A01 T00790022  RH  067%=      5-min Rain = 0
KCR2 141855Z 12008KT 08/02 A3027 RMK A01 T00790022  RH  067%=      5-min Rain = 0
KCR2 141856Z 13007KT 08/02 A3027 RMK A01 T00810023  RH  067%=      5-min Rain = 0
KCR2 141857Z 14009KT 08/02 A3027 RMK A01 T00810022  RH  066%=      5-min Rain = 0
KCR2 141858Z 16012KT 08/02 A3027 RMK A01 T00830024  RH  067%=      5-min Rain = 0
KCR2 141859Z 14011KT 08/03 A3027 RMK A01 T00830025  RH  067%=      5-min Rain = 0
KCR2 141900Z 14010KT 08/02 A3027 RMK A01 T00840024  RH  066%=      5-min Rain = 0
KCR2 141901Z 13008KT 08/02 A3027 RMK A01 T00840023  RH  066%=      5-min Rain = 0
KCR2 141902Z 14007KT 08/02 A3027 RMK A01 T00820020  RH  065%=      5-min Rain = 0
KCR2 141903Z 15010KT 08/03 A3026 RMK A01 T00830025  RH  067%=      5-min Rain = 0
KCR2 141904Z 15012KT 08/02 A3026 RMK A01 T00840024  RH  066%=      5-min Rain = 0
KCR2 141905Z 16010KT 08/02 A3026 RMK A01 T00840023  RH  065%=      5-min Rain = 0
KCR2 141906Z 16009KT 08/02 A3026 RMK A01 T00840023  RH  066%=      5-min Rain = 0
KCR2 141907Z 16008KT 08/02 A3026 RMK A01 T00840023  RH  065%=      5-min Rain = 0
KCR2 141908Z 17008KT 08/03 A3026 RMK A01 T00840025  RH  066%=      5-min Rain = 0
KCR2 141909Z 16007KT 09/02 A3026 RMK A01 T00850023  RH  065%=      5-min Rain = 0
KCR2 141910Z 14010KT 09/03 A3026 RMK A01 T00880030  RH  067%=      5-min Rain = 0
KCR2 141911Z 15008KT 09/03 A3026 RMK A01 T00890026  RH  065%=      5-min Rain = 0
KCR2 141912Z 15008KT 09/03 A3026 RMK A01 T00880025  RH  065%=      5-min Rain = 0
KCR2 141913Z 17008KT 09/03 A3026 RMK A01 T00880026  RH  065%=      5-min Rain = 0
KCR2 141914Z 18010KT 09/03 A3026 RMK A01 T00890025  RH  064%=      5-min Rain = 0
KCR2 141915Z 16009KT 09/03 A3026 RMK A01 T00890025  RH  064%=      5-min Rain = 0
KCR2 141916Z 18009KT 09/03 A3026 RMK A01 T00890025  RH  064%=      5-min Rain = 0
KCR2 141917Z 17007KT 09/02 A3026 RMK A01 T00890024  RH  064%=      5-min Rain = 0
KCR2 141918Z 16007KT 09/02 A3026 RMK A01 T00880023  RH  064%=      5-min Rain = 0
KCR2 141919Z 15009KT 09/02 A3025 RMK A01 T00880023  RH  064%=      5-min Rain = 0
KCR2 141920Z 15009KT 09/03 A3025 RMK A01 T00880025  RH  065%=      5-min Rain = 0
KCR2 141921Z 16008KT 09/02 A3025 RMK A01 T00880023  RH  064%=      5-min Rain = 0
KCR2 141922Z 16007KT 09/02 A3025 RMK A01 T00870022  RH  063%=      5-min Rain = 0
KCR2 141923Z 16007KT 09/02 A3025 RMK A01 T00860022  RH  064%=      5-min Rain = 0
KCR2 141924Z 18009KT 09/02 A3025 RMK A01 T00880024  RH  064%=      5-min Rain = 0
KCR2 141925Z 18010KT 09/02 A3025 RMK A01 T00900024  RH  063%=      5-min Rain = 0
KCR2 141926Z 17011KT 09/02 A3025 RMK A01 T00900024  RH  063%=      5-min Rain = 0
KCR2 141927Z 18007KT 09/02 A3025 RMK A01 T00890022  RH  063%=      5-min Rain = 0
KCR2 141928Z 18007KT 09/03 A3025 RMK A01 T00890027  RH  065%=      5-min Rain = 0
KCR2 141929Z 17008KT 09/03 A3025 RMK A01 T00910025  RH  063%=      5-min Rain = 0
KCR2 141930Z 15011KT 09/03 A3025 RMK A01 T00920028  RH  065%=      5-min Rain = 0
KCR2 141931Z 17012KT 09/03 A3025 RMK A01 T00930026  RH  063%=      5-min Rain = 0
KCR2 141932Z 18007KT 09/02 A3025 RMK A01 T00910021  RH  062%=      5-min Rain = 0
KCR2 141933Z 18007KT 09/02 A3025 RMK A01 T00890024  RH  064%=      5-min Rain = 0
KCR2 141934Z 16008KT 09/02 A3025 RMK A01 T00900024  RH  063%=      5-min Rain = 0
KCR2 141935Z 15009G14KT 09/02 A3024 RMK A01 T00900022  RH  063%=      5-min Rain = 0
KCR2 141936Z 16008KT 09/02 A3024 RMK A01 T00900023  RH  063%=      5-min Rain = 0
KCR2 141937Z 17008KT 09/03 A3024 RMK A01 T00910026  RH  063%=      5-min Rain = 0
KCR2 141938Z 17008KT 09/03 A3024 RMK A01 T00920025  RH  063%=      5-min Rain = 0
KCR2 141939Z 16009KT 09/03 A3024 RMK A01 T00930027  RH  063%=      5-min Rain = 0
KCR2 141940Z 17008KT 09/03 A3024 RMK A01 T00940025  RH  062%=      5-min Rain = 0
KCR2 141941Z 15008KT 09/03 A3024 RMK A01 T00930027  RH  063%=      5-min Rain = 0
KCR2 141942Z 17005KT 09/03 A3024 RMK A01 T00940026  RH  062%=      5-min Rain = 0
KCR2 141943Z 14008KT 09/03 A3024 RMK A01 T00930027  RH  063%=      5-min Rain = 0
KCR2 141944Z 13007KT 09/03 A3024 RMK A01 T00930025  RH  062%=      5-min Rain = 0
KCR2 141945Z 14008G13KT 09/02 A3024 RMK A01 T00910024  RH  063%=      5-min Rain = 0
KCR2 141946Z 16012KT 09/03 A3024 RMK A01 T00930029  RH  064%=      5-min Rain = 0
KCR2 141947Z 15011KT 10/03 A3024 RMK A01 T00950030  RH  064%=      5-min Rain = 0
KCR2 141948Z 14008KT 09/03 A3024 RMK A01 T00940026  RH  062%=      5-min Rain = 0
KCR2 141949Z 14007KT 09/03 A3024 RMK A01 T00930025  RH  063%=      5-min Rain = 0
KCR2 141950Z 13012KT 09/03 A3023 RMK A01 T00920025  RH  063%=      5-min Rain = 0
KCR2 141951Z 14013KT 09/03 A3023 RMK A01 T00940029  RH  064%=      5-min Rain = 0
KCR2 141952Z 15010KT 09/03 A3023 RMK A01 T00940027  RH  063%=      5-min Rain = 0
KCR2 141953Z 14007KT 09/03 A3023 RMK A01 T00930025  RH  063%=      5-min Rain = 0
KCR2 141954Z 16008G13KT 09/03 A3023 RMK A01 T00940031  RH  065%=      5-min Rain = 0
KCR2 141955Z 16010KT 10/03 A3023 RMK A01 T00960028  RH  063%=      5-min Rain = 0
KCR2 141956Z 14008KT 10/03 A3023 RMK A01 T00960028  RH  062%=      5-min Rain = 0
KCR2 141957Z 14008KT 10/03 A3023 RMK A01 T00960027  RH  062%=      5-min Rain = 0
KCR2 141958Z 16009KT 10/03 A3023 RMK A01 T00950026  RH  062%=      5-min Rain = 0
KCR2 141959Z 14007KT 09/02 A3023 RMK A01 T00940023  RH  061%=      5-min Rain = 0
KCR2 142000Z 13008KT 09/03 A3023 RMK A01 T00930025  RH  063%=      5-min Rain = 0
KCR2 142001Z 14010KT 10/03 A3023 RMK A01 T00950029  RH  063%=      5-min Rain = 0
KCR2 142002Z 15012KT 10/03 A3023 RMK A01 T00970028  RH  062%=      5-min Rain = 0
KCR2 142003Z 15010KT 10/03 A3023 RMK A01 T00980027  RH  061%=      5-min Rain = 0
KCR2 142004Z 15007KT 10/03 A3023 RMK A01 T00980026  RH  061%=      5-min Rain = 0
KCR2 142005Z 14008KT 10/03 A3023 RMK A01 T00980028  RH  062%=      5-min Rain = 0
KCR2 142006Z 14009KT 10/03 A3023 RMK A01 T00980028  RH  061%=      5-min Rain = 0
KCR2 142007Z 14010KT 10/03 A3023 RMK A01 T00980026  RH  061%=      5-min Rain = 0
KCR2 142008Z 14012KT 10/03 A3022 RMK A01 T00970027  RH  062%=      5-min Rain = 0
KCR2 142009Z 13010KT 10/03 A3022 RMK A01 T00970025  RH  061%=      5-min Rain = 0
KCR2 142010Z 14011KT 10/03 A3022 RMK A01 T00970025  RH  061%=      5-min Rain = 0
KCR2 142011Z 16011KT 10/03 A3022 RMK A01 T00980026  RH  061%=      5-min Rain = 0
KCR2 142012Z 15010KT 10/03 A3022 RMK A01 T00980027  RH  061%=      5-min Rain = 0
KCR2 142013Z 15010KT 10/02 A3022 RMK A01 T00980024  RH  060%=      5-min Rain = 0
KCR2 142014Z 14012KT 10/03 A3022 RMK A01 T00980026  RH  061%=      5-min Rain = 0
KCR2 142015Z 14009KT 10/02 A3022 RMK A01 T00980024  RH  060%=      5-min Rain = 0
KCR2 142016Z 14012KT 10/03 A3022 RMK A01 T00990029  RH  062%=      5-min Rain = 0
KCR2 142017Z 15010KT 10/03 A3022 RMK A01 T01010027  RH  060%=      5-min Rain = 0
KCR2 142018Z 15009KT 10/03 A3022 RMK A01 T00990025  RH  060%=      5-min Rain = 0
KCR2 142019Z 14008KT 10/03 A3022 RMK A01 T00980025  RH  060%=      5-min Rain = 0
KCR2 142020Z 13007KT 10/02 A3022 RMK A01 T00980024  RH  060%=      5-min Rain = 0
KCR2 142021Z 15011G16KT 10/03 A3022 RMK A01 T00990027  RH  061%=      5-min Rain = 0
KCR2 142022Z 15013KT 10/03 A3022 RMK A01 T01010028  RH  061%=      5-min Rain = 0
KCR2 142023Z 15012KT 10/03 A3022 RMK A01 T01020026  RH  059%=      5-min Rain = 0
KCR2 142024Z 15010KT 10/02 A3022 RMK A01 T01000023  RH  059%=      5-min Rain = 0
KCR2 142025Z 13011KT 10/03 A3021 RMK A01 T00990025  RH  060%=      5-min Rain = 0
KCR2 142026Z 13009KT 10/02 A3021 RMK A01 T01000023  RH  059%=      5-min Rain = 0
KCR2 142027Z 14011KT 10/02 A3021 RMK A01 T01000022  RH  058%=      5-min Rain = 0
KCR2 142028Z 15011KT 10/02 A3021 RMK A01 T01000024  RH  059%=      5-min Rain = 0
KCR2 142029Z 14011KT 10/02 A3021 RMK A01 T01010023  RH  059%=      5-min Rain = 0
KCR2 142030Z 15011KT 10/03 A3021 RMK A01 T01010025  RH  059%=      5-min Rain = 0
KCR2 142031Z 15007KT 10/03 A3021 RMK A01 T01010026  RH  060%=      5-min Rain = 0
KCR2 142032Z 16010KT 10/03 A3021 RMK A01 T01000025  RH  059%=      5-min Rain = 0
KCR2 142033Z 16012KT 10/03 A3021 RMK A01 T01010025  RH  059%=      5-min Rain = 0
KCR2 142034Z 15010KT 10/02 A3021 RMK A01 T01020024  RH  059%=      5-min Rain = 0
KCR2 142035Z 16008KT 10/03 A3021 RMK A01 T01000025  RH  059%=      5-min Rain = 0
KCR2 142036Z 15010G15KT 10/03 A3021 RMK A01 T01010025  RH  059%=      5-min Rain = 0
KCR2 142037Z 15012KT 10/03 A302 RMK A01 T01020026  RH  059%=      5-min Rain = 0
KCR2 142038Z 15010KT 10/03 A302 RMK A01 T01020026  RH  059%=      5-min Rain = 0
KCR2 142039Z 15012KT 10/03 A302 RMK A01 T01040029  RH  060%=      5-min Rain = 0
KCR2 142040Z 15012KT 10/03 A302 RMK A01 T01040025  RH  058%=      5-min Rain = 0
KCR2 142041Z 15011KT 10/03 A302 RMK A01 T01020025  RH  059%=      5-min Rain = 0
KCR2 142042Z 16013KT 10/02 A302 RMK A01 T01010023  RH  059%=      5-min Rain = 0
KCR2 142043Z 15009KT 10/03 A302 RMK A01 T01010026  RH  060%=      5-min Rain = 0
KCR2 142044Z 15009KT 10/03 A302 RMK A01 T01010026  RH  059%=      5-min Rain = 0
KCR2 142045Z 15010KT 10/03 A302 RMK A01 T01040031  RH  060%=      5-min Rain = 0
KCR2 142046Z 15010KT 11/03 A302 RMK A01 T01060029  RH  059%=      5-min Rain = 0
KCR2 142047Z 13011KT 11/03 A302 RMK A01 T01080032  RH  060%=      5-min Rain = 0
KCR2 142048Z 14011KT 11/03 A302 RMK A01 T01070026  RH  057%=      5-min Rain = 0
KCR2 142049Z 13011KT 10/02 A302 RMK A01 T01040024  RH  058%=      5-min Rain = 0
KCR2 142050Z 14013KT 10/02 A302 RMK A01 T01030023  RH  058%=      5-min Rain = 0
KCR2 142051Z 15011KT 10/02 A302 RMK A01 T01020024  RH  058%=      5-min Rain = 0
KCR2 142052Z 15011G16KT 10/03 A302 RMK A01 T01030025  RH  059%=      5-min Rain = 0
KCR2 142053Z 15013KT 10/02 A302 RMK A01 T01040024  RH  058%=      5-min Rain = 0
KCR2 142054Z 14013KT 10/03 A302 RMK A01 T01040026  RH  058%=      5-min Rain = 0
KCR2 142055Z 14010KT 10/02 A302 RMK A01 T01040024  RH  057%=      5-min Rain = 0
KCR2 142056Z 15011KT 11/03 A302 RMK A01 T01050025  RH  058%=      5-min Rain = 0
KCR2 142057Z 16011KT 11/02 A3019 RMK A01 T01050024  RH  057%=      5-min Rain = 0
KCR2 142058Z 15011KT 10/02 A3019 RMK A01 T01030022  RH  057%=      5-min Rain = 0
KCR2 142059Z 15013KT 10/03 A3019 RMK A01 T01040029  RH  059%=      5-min Rain = 0
KCR2 142100Z 15010KT 11/03 A3019 RMK A01 T01050026  RH  058%=      5-min Rain = 0
KCR2 142101Z 15009KT 11/03 A3019 RMK A01 T01050026  RH  058%=      5-min Rain = 0
KCR2 142102Z 15009KT 11/03 A3019 RMK A01 T01060026  RH  058%=      5-min Rain = 0
KCR2 142103Z 14011KT 11/03 A3019 RMK A01 T01060026  RH  057%=      5-min Rain = 0
KCR2 142104Z 13011KT 11/02 A3019 RMK A01 T01070024  RH  057%=      5-min Rain = 0
KCR2 142105Z 15010KT 11/03 A3019 RMK A01 T01050025  RH  057%=      5-min Rain = 0
KCR2 142106Z 14008KT 11/03 A3019 RMK A01 T01050026  RH  058%=      5-min Rain = 0
KCR2 142107Z 15011KT 11/03 A3019 RMK A01 T01060028  RH  058%=      5-min Rain = 0
KCR2 142108Z 16012KT 11/03 A3019 RMK A01 T01080027  RH  057%=      5-min Rain = 0
KCR2 142109Z 16009KT 11/03 A3019 RMK A01 T01090027  RH  057%=      5-min Rain = 0
KCR2 142110Z 16011KT 11/03 A3019 RMK A01 T01100029  RH  057%=      5-min Rain = 0
KCR2 142111Z 15010KT 11/03 A3019 RMK A01 T01110030  RH  057%=      5-min Rain = 0
KCR2 142112Z 15011KT 11/03 A3019 RMK A01 T01120031  RH  057%=      5-min Rain = 0
KCR2 142113Z 15013KT 11/03 A3019 RMK A01 T01120027  RH  056%=      5-min Rain = 0
KCR2 142114Z 13012KT 11/03 A3019 RMK A01 T01110027  RH  056%=      5-min Rain = 0
KCR2 142115Z 15012KT 11/03 A3019 RMK A01 T01100029  RH  057%=      5-min Rain = 0
KCR2 142116Z 14012KT 11/03 A3019 RMK A01 T01100025  RH  056%=      5-min Rain = 0
KCR2 142117Z 14010KT 11/03 A3019 RMK A01 T01090027  RH  057%=      5-min Rain = 0
KCR2 142118Z 16011KT 11/03 A3018 RMK A01 T01110032  RH  058%=      5-min Rain = 0
KCR2 142119Z 17013KT 11/03 A3018 RMK A01 T01130030  RH  057%=      5-min Rain = 0
KCR2 142120Z 18013KT 11/03 A3018 RMK A01 T01120025  RH  055%=      5-min Rain = 0
KCR2 142121Z 17012KT 11/03 A3018 RMK A01 T01100025  RH  056%=      5-min Rain = 0
KCR2 142122Z 16012KT 11/03 A3018 RMK A01 T01100026  RH  056%=      5-min Rain = 0
KCR2 142123Z 14013KT 11/03 A3018 RMK A01 T01110029  RH  057%=      5-min Rain = 0
KCR2 142124Z 14012KT 11/03 A3018 RMK A01 T01120029  RH  056%=      5-min Rain = 0
KCR2 142125Z 14013KT 11/03 A3018 RMK A01 T01130029  RH  056%=      5-min Rain = 0
KCR2 142126Z 15014KT 11/03 A3018 RMK A01 T01120028  RH  056%=      5-min Rain = 0
KCR2 142127Z 16011KT 11/03 A3018 RMK A01 T01120028  RH  056%=      5-min Rain = 0
KCR2 142128Z 14009KT 11/03 A3018 RMK A01 T01120029  RH  057%=      5-min Rain = 0
KCR2 142129Z 12011KT 11/03 A3018 RMK A01 T01130031  RH  057%=      5-min Rain = 0
KCR2 142130Z 13010KT 11/03 A3018 RMK A01 T01130028  RH  056%=      5-min Rain = 0
KCR2 142131Z 12010KT 11/03 A3018 RMK A01 T01130032  RH  058%=      5-min Rain = 0
KCR2 142132Z 13013KT 12/03 A3018 RMK A01 T01160033  RH  057%=      5-min Rain = 0
KCR2 142133Z 14010KT 12/03 A3018 RMK A01 T01150028  RH  055%=      5-min Rain = 0
KCR2 142134Z 16013G18KT 11/03 A3018 RMK A01 T01140028  RH  055%=      5-min Rain = 0
KCR2 142135Z 16015KT 11/03 A3018 RMK A01 T01140025  RH  054%=      5-min Rain = 0
KCR2 142136Z 16014KT 11/03 A3018 RMK A01 T01140025  RH  054%=      5-min Rain = 0
KCR2 142137Z 15012KT 11/02 A3018 RMK A01 T01120023  RH  054%=      5-min Rain = 0
KCR2 142138Z 15009KT 11/02 A3018 RMK A01 T01110024  RH  055%=      5-min Rain = 0
KCR2 142139Z 13010KT 11/03 A3018 RMK A01 T01130028  RH  056%=      5-min Rain = 0
KCR2 142140Z 14009KT 11/03 A3018 RMK A01 T01140027  RH  055%=      5-min Rain = 0
KCR2 142141Z 18013KT 12/03 A3017 RMK A01 T01150027  RH  055%=      5-min Rain = 0
KCR2 142142Z 15014KT 12/03 A3017 RMK A01 T01160025  RH  054%=      5-min Rain = 0
KCR2 142143Z 15010KT 12/03 A3017 RMK A01 T01150026  RH  054%=      5-min Rain = 0
KCR2 142144Z 14012KT 12/03 A3017 RMK A01 T01150025  RH  054%=      5-min Rain = 0
KCR2 142145Z 14013KT 12/02 A3017 RMK A01 T01150023  RH  053%=      5-min Rain = 0
KCR2 142146Z 14013KT 12/03 A3017 RMK A01 T01150027  RH  055%=      5-min Rain = 0
KCR2 142147Z 14015KT 12/02 A3017 RMK A01 T01170023  RH  052%=      5-min Rain = 0
KCR2 142148Z 14014KT 12/02 A3017 RMK A01 T01160022  RH  052%=      5-min Rain = 0
KCR2 142149Z 15014KT 12/02 A3017 RMK A01 T01160023  RH  053%=      5-min Rain = 0
KCR2 142150Z 15011KT 12/02 A3017 RMK A01 T01150023  RH  053%=      5-min Rain = 0
KCR2 142151Z 15010KT 11/02 A3017 RMK A01 T01140023  RH  054%=      5-min Rain = 0
KCR2 142152Z 15012KT 12/03 A3017 RMK A01 T01150027  RH  055%=      5-min Rain = 0
KCR2 142153Z 15011KT 12/03 A3017 RMK A01 T01180025  RH  053%=      5-min Rain = 0
KCR2 142154Z 15011KT 12/03 A3017 RMK A01 T01190027  RH  053%=      5-min Rain = 0
KCR2 142155Z 15012KT 12/03 A3017 RMK A01 T01190027  RH  053%=      5-min Rain = 0
KCR2 142156Z 12011KT 12/03 A3017 RMK A01 T01190025  RH  053%=      5-min Rain = 0
KCR2 142157Z 13010KT 12/03 A3016 RMK A01 T01180027  RH  054%=      5-min Rain = 0
KCR2 142158Z 14012KT 12/03 A3016 RMK A01 T01180029  RH  054%=      5-min Rain = 0
KCR2 142159Z 15012KT 12/03 A3017 RMK A01 T01210032  RH  054%=      5-min Rain = 0
KCR2 142200Z 16013KT 12/03 A3016 RMK A01 T01210025  RH  052%=      5-min Rain = 0
KCR2 142201Z 15012KT 12/03 A3016 RMK A01 T01210029  RH  054%=      5-min Rain = 0
KCR2 142202Z 16012KT 12/03 A3016 RMK A01 T01210026  RH  052%=      5-min Rain = 0
KCR2 142203Z 15011KT 12/03 A3016 RMK A01 T01200025  RH  052%=      5-min Rain = 0
KCR2 142204Z 15015KT 12/03 A3016 RMK A01 T01190026  RH  053%=      5-min Rain = 0
KCR2 142205Z 16013KT 12/02 A3016 RMK A01 T01190023  RH  052%=      5-min Rain = 0
KCR2 142206Z 16014KT 12/02 A3016 RMK A01 T01190024  RH  052%=      5-min Rain = 0
KCR2 142207Z 16013KT 12/03 A3016 RMK A01 T01190026  RH  053%=      5-min Rain = 0
KCR2 142208Z 17012G17KT 12/03 A3016 RMK A01 T01210026  RH  052%=      5-min Rain = 0
KCR2 142209Z 17013KT 12/03 A3016 RMK A01 T01210025  RH  052%=      5-min Rain = 0
KCR2 142210Z 15013KT 12/03 A3016 RMK A01 T01210026  RH  052%=      5-min Rain = 0
KCR2 142211Z 13012KT 12/03 A3016 RMK A01 T01180026  RH  053%=      5-min Rain = 0
KCR2 142212Z 13013KT 12/03 A3016 RMK A01 T01170028  RH  054%=      5-min Rain = 0
KCR2 142213Z 14012KT 12/03 A3016 RMK A01 T01170027  RH  054%=      5-min Rain = 0
KCR2 142214Z 14012KT 12/03 A3016 RMK A01 T01170028  RH  054%=      5-min Rain = 0
KCR2 142215Z 16014KT 12/03 A3016 RMK A01 T01170027  RH  054%=      5-min Rain = 0
KCR2 142216Z 17013KT 12/03 A3016 RMK A01 T01190026  RH  053%=      5-min Rain = 0
KCR2 142217Z 16010KT 12/03 A3016 RMK A01 T01190026  RH  053%=      5-min Rain = 0
KCR2 142218Z 16011KT 12/03 A3016 RMK A01 T01180026  RH  053%=      5-min Rain = 0
KCR2 142219Z 16013KT 12/02 A3016 RMK A01 T01190023  RH  052%=      5-min Rain = 0
KCR2 142220Z 17013KT 12/03 A3016 RMK A01 T01190025  RH  053%=      5-min Rain = 0
KCR2 142221Z 15011KT 12/03 A3016 RMK A01 T01190026  RH  053%=      5-min Rain = 0
KCR2 142222Z 14011KT 12/03 A3016 RMK A01 T01190028  RH  054%=      5-min Rain = 0
KCR2 142223Z 13011KT 12/03 A3016 RMK A01 T01180029  RH  054%=      5-min Rain = 0
KCR2 142224Z 14010KT 12/03 A3016 RMK A01 T01190031  RH  055%=      5-min Rain = 0
KCR2 142225Z 14010KT 12/03 A3016 RMK A01 T01210034  RH  055%=      5-min Rain = 0
KCR2 142226Z 14011KT 12/03 A3016 RMK A01 T01220031  RH  053%=      5-min Rain = 0
KCR2 142227Z 15017KT 12/03 A3016 RMK A01 T01220029  RH  053%=      5-min Rain = 0
KCR2 142228Z 15016KT 12/02 A3016 RMK A01 T01200023  RH  051%=      5-min Rain = 0
KCR2 142229Z 15013KT 12/02 A3016 RMK A01 T01190024  RH  052%=      5-min Rain = 0
KCR2 142230Z 15013KT 12/03 A3016 RMK A01 T01180025  RH  053%=      5-min Rain = 0
KCR2 142231Z 15013KT 12/03 A3016 RMK A01 T01190027  RH  053%=      5-min Rain = 0
KCR2 142232Z 16013KT 12/03 A3016 RMK A01 T01190027  RH  053%=      5-min Rain = 0
KCR2 142233Z 15015KT 12/03 A3016 RMK A01 T01190027  RH  053%=      5-min Rain = 0
KCR2 142234Z 14013KT 12/03 A3016 RMK A01 T01190028  RH  054%=      5-min Rain = 0
KCR2 142235Z 15011KT 12/03 A3016 RMK A01 T01190029  RH  054%=      5-min Rain = 0
KCR2 142236Z 14010KT 12/03 A3016 RMK A01 T01180029  RH  054%=      5-min Rain = 0
KCR2 142237Z 14010KT 12/03 A3016 RMK A01 T01180027  RH  054%=      5-min Rain = 0
KCR2 142238Z 14013KT 12/03 A3016 RMK A01 T01180030  RH  055%=      5-min Rain = 0
KCR2 142239Z 14013KT 12/03 A3016 RMK A01 T01190031  RH  055%=      5-min Rain = 0
KCR2 142240Z 14013KT 12/03 A3016 RMK A01 T01190028  RH  054%=      5-min Rain = 0
KCR2 142241Z 13012KT 12/03 A3016 RMK A01 T01180028  RH  054%=      5-min Rain = 0
KCR2 142242Z 13012KT 12/03 A3016 RMK A01 T01170029  RH  055%=      5-min Rain = 0
KCR2 142243Z 13011G16KT 12/03 A3016 RMK A01 T01170029  RH  055%=      5-min Rain = 0
KCR2 142244Z 13013KT 12/03 A3016 RMK A01 T01170029  RH  055%=      5-min Rain = 0
KCR2 142245Z 14014KT 12/03 A3016 RMK A01 T01170030  RH  055%=      5-min Rain = 0
KCR2 142246Z 14011KT 12/03 A3016 RMK A01 T01170030  RH  055%=      5-min Rain = 0
KCR2 142247Z 14014KT 12/03 A3016 RMK A01 T01180030  RH  055%=      5-min Rain = 0
KCR2 142248Z 13015KT 12/03 A3016 RMK A01 T01180029  RH  054%=      5-min Rain = 0
KCR2 142249Z 13015KT 12/03 A3016 RMK A01 T01180026  RH  054%=      5-min Rain = 0
KCR2 142250Z 13013KT 12/03 A3016 RMK A01 T01170028  RH  054%=      5-min Rain = 0
KCR2 142251Z 13013KT 12/03 A3016 RMK A01 T01160027  RH  054%=      5-min Rain = 0
KCR2 142252Z 12011KT 12/03 A3016 RMK A01 T01160029  RH  055%=      5-min Rain = 0
KCR2 142253Z 13013KT 12/03 A3016 RMK A01 T01160030  RH  055%=      5-min Rain = 0
KCR2 142254Z 14014KT 12/03 A3016 RMK A01 T01180030  RH  055%=      5-min Rain = 0
KCR2 142255Z 13014KT 12/03 A3016 RMK A01 T01170029  RH  055%=      5-min Rain = 0
KCR2 142256Z 13014KT 12/03 A3016 RMK A01 T01160027  RH  054%=      5-min Rain = 0
KCR2 142257Z 14013KT 12/03 A3016 RMK A01 T01150026  RH  054%=      5-min Rain = 0
KCR2 142258Z 14013KT 12/03 A3016 RMK A01 T01160029  RH  055%=      5-min Rain = 0
KCR2 142259Z 14014KT 12/03 A3016 RMK A01 T01170028  RH  054%=      5-min Rain = 0
KCR2 142300Z 13013KT 12/03 A3016 RMK A01 T01160027  RH  054%=      5-min Rain = 0
KCR2 142301Z 13015KT 12/03 A3016 RMK A01 T01150027  RH  055%=      5-min Rain = 0
KCR2 142302Z 13014KT 12/03 A3016 RMK A01 T01160028  RH  055%=      5-min Rain = 0
KCR2 142303Z 13013KT 12/03 A3016 RMK A01 T01160028  RH  055%=      5-min Rain = 0
KCR2 142304Z 13013KT 12/03 A3016 RMK A01 T01150029  RH  055%=      5-min Rain = 0
KCR2 142305Z 12015KT 12/03 A3015 RMK A01 T01160029  RH  055%=      5-min Rain = 0
KCR2 142306Z 13013KT 12/03 A3015 RMK A01 T01160029  RH  055%=      5-min Rain = 0
KCR2 142307Z 14014KT 12/03 A3015 RMK A01 T01160029  RH  055%=      5-min Rain = 0
KCR2 142308Z 15014KT 12/03 A3015 RMK A01 T01170028  RH  055%=      5-min Rain = 0
KCR2 142309Z 15013KT 12/03 A3015 RMK A01 T01160028  RH  055%=      5-min Rain = 0
KCR2 142310Z 13013KT 12/03 A3015 RMK A01 T01160029  RH  055%=      5-min Rain = 0
KCR2 142311Z 14013KT 12/03 A3015 RMK A01 T01170029  RH  055%=      5-min Rain = 0
KCR2 142312Z 14014KT 12/03 A3015 RMK A01 T01150027  RH  055%=      5-min Rain = 0
KCR2 142313Z 13013KT 12/03 A3015 RMK A01 T01150027  RH  055%=      5-min Rain = 0
KCR2 142314Z 13015KT 12/03 A3015 RMK A01 T01150028  RH  055%=      5-min Rain = 0
KCR2 142315Z 13015KT 11/03 A3015 RMK A01 T01140027  RH  055%=      5-min Rain = 0
KCR2 142316Z 13014KT 11/03 A3015 RMK A01 T01140028  RH  055%=      5-min Rain = 0
KCR2 142317Z 14012KT 12/03 A3015 RMK A01 T01150027  RH  055%=      5-min Rain = 0
KCR2 142318Z 14016KT 12/03 A3015 RMK A01 T01150028  RH  055%=      5-min Rain = 0
KCR2 142319Z 14017KT 12/03 A3015 RMK A01 T01150027  RH  055%=      5-min Rain = 0
KCR2 142320Z 15015KT 12/03 A3015 RMK A01 T01150028  RH  055%=      5-min Rain = 0
KCR2 142321Z 15015KT 12/03 A3015 RMK A01 T01150029  RH  055%=      5-min Rain = 0
KCR2 142322Z 15013KT 12/03 A3015 RMK A01 T01160030  RH  055%=      5-min Rain = 0
KCR2 142323Z 14014KT 12/03 A3015 RMK A01 T01170030  RH  055%=      5-min Rain = 0
KCR2 142324Z 15016KT 12/03 A3015 RMK A01 T01170028  RH  054%=      5-min Rain = 0
KCR2 142325Z 15014KT 12/03 A3015 RMK A01 T01160028  RH  055%=      5-min Rain = 0
KCR2 142326Z 15012KT 12/03 A3015 RMK A01 T01160030  RH  056%=      5-min Rain = 0
KCR2 142327Z 14014KT 12/03 A3015 RMK A01 T01160030  RH  055%=      5-min Rain = 0
KCR2 142328Z 13012KT 12/03 A3015 RMK A01 T01150029  RH  055%=      5-min Rain = 0
KCR2 142329Z 14013KT 12/03 A3015 RMK A01 T01150029  RH  056%=      5-min Rain = 0
KCR2 142330Z 13013KT 12/03 A3015 RMK A01 T01150030  RH  056%=      5-min Rain = 0
KCR2 142331Z 14013KT 12/03 A3015 RMK A01 T01150029  RH  056%=      5-min Rain = 0
KCR2 142332Z 14013KT 11/03 A3015 RMK A01 T01140028  RH  055%=      5-min Rain = 0
KCR2 142333Z 14012KT 11/03 A3015 RMK A01 T01140029  RH  056%=      5-min Rain = 0
KCR2 142334Z 14010KT 11/03 A3015 RMK A01 T01140029  RH  056%=      5-min Rain = 0
KCR2 142335Z 14010KT 11/03 A3015 RMK A01 T01140031  RH  056%=      5-min Rain = 0
KCR2 142336Z 14009KT 12/03 A3015 RMK A01 T01150030  RH  056%=      5-min Rain = 0
KCR2 142337Z 13012KT 12/03 A3015 RMK A01 T01150030  RH  056%=      5-min Rain = 0
KCR2 142338Z 14012KT 12/03 A3015 RMK A01 T01150030  RH  056%=      5-min Rain = 0
KCR2 142339Z 14011KT 11/03 A3015 RMK A01 T01140028  RH  056%=      5-min Rain = 0
KCR2 142340Z 15011KT 11/03 A3015 RMK A01 T01140030  RH  056%=      5-min Rain = 0
KCR2 142341Z 14011KT 11/03 A3015 RMK A01 T01140029  RH  056%=      5-min Rain = 0
KCR2 142342Z 14010KT 11/03 A3015 RMK A01 T01140029  RH  056%=      5-min Rain = 0
KCR2 142343Z 14008KT 11/03 A3015 RMK A01 T01140031  RH  057%=      5-min Rain = 0
KCR2 142344Z 14012KT 12/03 A3015 RMK A01 T01150031  RH  056%=      5-min Rain = 0
KCR2 142345Z 13012KT 12/03 A3015 RMK A01 T01150027  RH  055%=      5-min Rain = 0
KCR2 142346Z 13012KT 11/03 A3015 RMK A01 T01140028  RH  055%=      5-min Rain = 0
KCR2 142347Z 13012KT 11/03 A3015 RMK A01 T01140028  RH  056%=      5-min Rain = 0
KCR2 142348Z 13012KT 11/03 A3015 RMK A01 T01140029  RH  056%=      5-min Rain = 0
KCR2 142349Z 13011KT 11/03 A3015 RMK A01 T01140030  RH  056%=      5-min Rain = 0
KCR2 142350Z 13012KT 11/03 A3015 RMK A01 T01140028  RH  055%=      5-min Rain = 0
KCR2 142351Z 13010KT 11/03 A3015 RMK A01 T01140030  RH  056%=      5-min Rain = 0
KCR2 142352Z 13012KT 11/03 A3015 RMK A01 T01140029  RH  056%=      5-min Rain = 0
KCR2 142353Z 13012KT 11/03 A3015 RMK A01 T01140028  RH  055%=      5-min Rain = 0
KCR2 142354Z 13012KT 11/03 A3015 RMK A01 T01140028  RH  056%=      5-min Rain = 0
KCR2 142355Z 13013KT 11/03 A3015 RMK A01 T01130027  RH  056%=      5-min Rain = 0
KCR2 142356Z 13012KT 11/03 A3015 RMK A01 T01130027  RH  055%=      5-min Rain = 0
KCR2 142357Z 12010KT 11/03 A3015 RMK A01 T01130027  RH  056%=      5-min Rain = 0
KCR2 142358Z 13011KT 11/03 A3015 RMK A01 T01130029  RH  056%=      5-min Rain = 0
KCR2 142359Z 13010KT 11/03 A3015 RMK A01 T01130029  RH  056%=      5-min Rain = 0
KCR2 150000Z 13010KT 11/03 A3015 RMK A01 T01130029  RH  056%=      5-min Rain = 0
KCR2 150001Z 14009KT 11/03 A3015 RMK A01 T01130029  RH  056%=      5-min Rain = 0
KCR2 150002Z 14009KT 11/03 A3015 RMK A01 T01130030  RH  056%=      5-min Rain = 0
KCR2 150003Z 14010KT 11/03 A3015 RMK A01 T01130029  RH  056%=      5-min Rain = 0
KCR2 150004Z 14009KT 11/03 A3015 RMK A01 T01130030  RH  056%=      5-min Rain = 0
KCR2 150005Z 13010KT 11/03 A3015 RMK A01 T01130029  RH  056%=      5-min Rain = 0
KCR2 150006Z 13010KT 11/03 A3015 RMK A01 T01130028  RH  056%=      5-min Rain = 0
KCR2 150007Z 13009KT 11/03 A3015 RMK A01 T01130028  RH  056%=      5-min Rain = 0
KCR2 150008Z 13009KT 11/03 A3015 RMK A01 T01130029  RH  057%=      5-min Rain = 0
KCR2 150009Z 13010KT 11/03 A3015 RMK A01 T01120029  RH  056%=      5-min Rain = 0
KCR2 150010Z 13010KT 11/03 A3015 RMK A01 T01120028  RH  056%=      5-min Rain = 0
KCR2 150011Z 13009KT 11/03 A3015 RMK A01 T01120029  RH  057%=      5-min Rain = 0
KCR2 150012Z 14011KT 11/03 A3015 RMK A01 T01120030  RH  057%=      5-min Rain = 0
KCR2 150013Z 14010KT 11/03 A3015 RMK A01 T01120029  RH  057%=      5-min Rain = 0
KCR2 150014Z 13011KT 11/03 A3015 RMK A01 T01120028  RH  056%=      5-min Rain = 0
KCR2 150015Z 14010KT 11/03 A3015 RMK A01 T01120028  RH  056%=      5-min Rain = 0
KCR2 150016Z 14010KT 11/03 A3015 RMK A01 T01110028  RH  057%=      5-min Rain = 0
KCR2 150017Z 13010KT 11/03 A3015 RMK A01 T01110029  RH  057%=      5-min Rain = 0
KCR2 150018Z 13010KT 11/03 A3015 RMK A01 T01110029  RH  057%=      5-min Rain = 0
KCR2 150019Z 13009KT 11/03 A3015 RMK A01 T01110029  RH  057%=      5-min Rain = 0
KCR2 150020Z 13010KT 11/03 A3015 RMK A01 T01100029  RH  057%=      5-min Rain = 0
KCR2 150021Z 13010KT 11/03 A3015 RMK A01 T01100029  RH  057%=      5-min Rain = 0
KCR2 150022Z 13010KT 11/03 A3015 RMK A01 T01100029  RH  058%=      5-min Rain = 0
KCR2 150023Z 14009KT 11/03 A3015 RMK A01 T01090029  RH  058%=      5-min Rain = 0
KCR2 150024Z 14009KT 11/03 A3015 RMK A01 T01090029  RH  058%=      5-min Rain = 0
KCR2 150025Z 14010KT 11/03 A3015 RMK A01 T01090029  RH  058%=      5-min Rain = 0
KCR2 150026Z 14010KT 11/03 A3015 RMK A01 T01080029  RH  058%=      5-min Rain = 0
KCR2 150027Z 14009KT 11/03 A3015 RMK A01 T01080029  RH  058%=      5-min Rain = 0
KCR2 150028Z 14008KT 11/03 A3015 RMK A01 T01080030  RH  059%=      5-min Rain = 0
KCR2 150029Z 13008KT 11/03 A3015 RMK A01 T01070030  RH  059%=      5-min Rain = 0
KCR2 150030Z 13007KT 11/03 A3015 RMK A01 T01070030  RH  059%=      5-min Rain = 0
KCR2 150031Z 13007KT 11/03 A3015 RMK A01 T01070030  RH  059%=      5-min Rain = 0
KCR2 150032Z 14008KT 11/03 A3015 RMK A01 T01060030  RH  059%=      5-min Rain = 0
KCR2 150033Z 14008KT 11/03 A3016 RMK A01 T01050029  RH  059%=      5-min Rain = 0
KCR2 150034Z 14007KT 11/03 A3016 RMK A01 T01050029  RH  059%=      5-min Rain = 0
KCR2 150035Z 14007KT 11/03 A3016 RMK A01 T01050030  RH  060%=      5-min Rain = 0
KCR2 150036Z 14009KT 11/03 A3016 RMK A01 T01050030  RH  060%=      5-min Rain = 0
KCR2 150037Z 14008KT 10/03 A3015 RMK A01 T01040030  RH  060%=      5-min Rain = 0
KCR2 150038Z 14007KT 11/03 A3016 RMK A01 T01050030  RH  060%=      5-min Rain = 0
KCR2 150039Z 14007KT 10/03 A3016 RMK A01 T01040031  RH  060%=      5-min Rain = 0
KCR2 150040Z 14007KT 10/03 A3016 RMK A01 T01030031  RH  061%=      5-min Rain = 0
KCR2 150041Z 14006KT 10/03 A3016 RMK A01 T01030030  RH  061%=      5-min Rain = 0
KCR2 150042Z 14006KT 10/03 A3016 RMK A01 T01020031  RH  061%=      5-min Rain = 0
KCR2 150043Z 15007KT 10/03 A3016 RMK A01 T01020031  RH  062%=      5-min Rain = 0
KCR2 150044Z 15008KT 10/03 A3016 RMK A01 T01010031  RH  062%=      5-min Rain = 0
KCR2 150045Z 15007KT 10/03 A3016 RMK A01 T01010031  RH  062%=      5-min Rain = 0
KCR2 150046Z 15008KT 10/03 A3016 RMK A01 T01000032  RH  063%=      5-min Rain = 0
KCR2 150047Z 15007KT 10/03 A3016 RMK A01 T00990032  RH  063%=      5-min Rain = 0
KCR2 150048Z 16007KT 10/03 A3016 RMK A01 T00980033  RH  064%=      5-min Rain = 0
KCR2 150049Z 15008KT 10/03 A3016 RMK A01 T00980032  RH  063%=      5-min Rain = 0
KCR2 150050Z 15008KT 10/03 A3016 RMK A01 T00980031  RH  063%=      5-min Rain = 0
KCR2 150051Z 15009KT 10/03 A3016 RMK A01 T00990031  RH  063%=      5-min Rain = 0
KCR2 150052Z 14007KT 10/03 A3016 RMK A01 T01000031  RH  062%=      5-min Rain = 0
KCR2 150053Z 15007KT 10/03 A3016 RMK A01 T01000031  RH  062%=      5-min Rain = 0
KCR2 150054Z 14008KT 10/03 A3016 RMK A01 T00990030  RH  062%=      5-min Rain = 0
KCR2 150055Z 14007KT 10/03 A3016 RMK A01 T00990030  RH  062%=      5-min Rain = 0
KCR2 150056Z 14006KT 10/03 A3016 RMK A01 T01000030  RH  062%=      5-min Rain = 0
KCR2 150057Z 14005KT 10/03 A3016 RMK A01 T01000031  RH  062%=      5-min Rain = 0
KCR2 150058Z 14005KT 10/03 A3016 RMK A01 T00990031  RH  063%=      5-min Rain = 0
KCR2 150059Z 14006KT 10/03 A3016 RMK A01 T00980031  RH  063%=      5-min Rain = 0
KCR2 150100Z 14006KT 10/03 A3016 RMK A01 T00970031  RH  063%=      5-min Rain = 0
KCR2 150101Z 14006KT 10/03 A3016 RMK A01 T00970031  RH  063%=      5-min Rain = 0
KCR2 150102Z 14006KT 10/03 A3016 RMK A01 T00970031  RH  064%=      5-min Rain = 0
KCR2 150103Z 14005KT 10/03 A3016 RMK A01 T00960031  RH  064%=      5-min Rain = 0
KCR2 150104Z 14006KT 10/03 A3016 RMK A01 T00950031  RH  064%=      5-min Rain = 0
KCR2 150105Z 14006KT 10/03 A3017 RMK A01 T00950031  RH  064%=      5-min Rain = 0
KCR2 150106Z 14006KT 10/03 A3017 RMK A01 T00950030  RH  064%=      5-min Rain = 0
KCR2 150107Z 14006KT 10/03 A3017 RMK A01 T00950031  RH  064%=      5-min Rain = 0
KCR2 150108Z 14006KT 09/03 A3017 RMK A01 T00940031  RH  065%=      5-min Rain = 0
KCR2 150109Z 14006KT 09/03 A3017 RMK A01 T00940031  RH  065%=      5-min Rain = 0
KCR2 150110Z 14006KT 09/03 A3017 RMK A01 T00940031  RH  065%=      5-min Rain = 0
KCR2 150111Z 14006KT 09/03 A3017 RMK A01 T00930031  RH  065%=      5-min Rain = 0
KCR2 150112Z 14006KT 09/03 A3017 RMK A01 T00940032  RH  065%=      5-min Rain = 0
KCR2 150113Z 14006KT 09/03 A3017 RMK A01 T00930030  RH  065%=      5-min Rain = 0
KCR2 150114Z 14005KT 09/03 A3017 RMK A01 T00940031  RH  065%=      5-min Rain = 0
KCR2 150115Z 14005KT 09/03 A3017 RMK A01 T00930031  RH  065%=      5-min Rain = 0
KCR2 150116Z 14006KT 09/03 A3016 RMK A01 T00930031  RH  065%=      5-min Rain = 0
KCR2 150117Z 14006KT 09/03 A3016 RMK A01 T00930031  RH  065%=      5-min Rain = 0
KCR2 150118Z 14005KT 09/03 A3016 RMK A01 T00920031  RH  066%=      5-min Rain = 0
KCR2 150119Z 14006KT 09/03 A3016 RMK A01 T00910031  RH  066%=      5-min Rain = 0
KCR2 150120Z 14006KT 09/03 A3016 RMK A01 T00910031  RH  066%=      5-min Rain = 0
KCR2 150121Z 14006KT 09/03 A3016 RMK A01 T00910031  RH  066%=      5-min Rain = 0
KCR2 150122Z 14006KT 09/03 A3016 RMK A01 T00910031  RH  066%=      5-min Rain = 0
KCR2 150123Z 14006KT 09/03 A3016 RMK A01 T00900031  RH  066%=      5-min Rain = 0
KCR2 150124Z 15006KT 09/03 A3017 RMK A01 T00900031  RH  066%=      5-min Rain = 0
KCR2 150125Z 15006KT 09/03 A3017 RMK A01 T00900032  RH  067%=      5-min Rain = 0
KCR2 150126Z 15006KT 09/03 A3017 RMK A01 T00890032  RH  067%=      5-min Rain = 0
KCR2 150127Z 15007KT 09/03 A3017 RMK A01 T00880032  RH  068%=      5-min Rain = 0
KCR2 150128Z 15007KT 09/03 A3017 RMK A01 T00880032  RH  068%=      5-min Rain = 0
KCR2 150129Z 15007KT 09/03 A3017 RMK A01 T00870033  RH  069%=      5-min Rain = 0
KCR2 150130Z 15007KT 09/03 A3017 RMK A01 T00860033  RH  069%=      5-min Rain = 0
KCR2 150131Z 15007KT 09/03 A3017 RMK A01 T00860033  RH  069%=      5-min Rain = 0
KCR2 150132Z 15006KT 09/03 A3017 RMK A01 T00870033  RH  069%=      5-min Rain = 0
KCR2 150133Z 14007KT 09/03 A3017 RMK A01 T00870033  RH  069%=      5-min Rain = 0
KCR2 150134Z 14006KT 09/03 A3017 RMK A01 T00870034  RH  069%=      5-min Rain = 0
KCR2 150135Z 14006KT 09/03 A3017 RMK A01 T00870034  RH  069%=      5-min Rain = 0
KCR2 150136Z 14006KT 09/03 A3017 RMK A01 T00870034  RH  069%=      5-min Rain = 0
KCR2 150137Z 14006KT 09/03 A3017 RMK A01 T00870033  RH  069%=      5-min Rain = 0
KCR2 150138Z 14006KT 09/03 A3017 RMK A01 T00870033  RH  069%=      5-min Rain = 0
KCR2 150139Z 14006KT 09/03 A3017 RMK A01 T00870034  RH  069%=      5-min Rain = 0
KCR2 150140Z 14006KT 09/03 A3017 RMK A01 T00860034  RH  070%=      5-min Rain = 0
KCR2 150141Z 14005KT 09/03 A3017 RMK A01 T00860034  RH  070%=      5-min Rain = 0
KCR2 150142Z 14005KT 09/03 A3017 RMK A01 T00860034  RH  070%=      5-min Rain = 0
KCR2 150143Z 14005KT 09/03 A3017 RMK A01 T00850034  RH  070%=      5-min Rain = 0
KCR2 150144Z 15005KT 09/03 A3017 RMK A01 T00850034  RH  070%=      5-min Rain = 0
KCR2 150145Z 15005KT 09/03 A3018 RMK A01 T00850034  RH  070%=      5-min Rain = 0
KCR2 150146Z 16005KT 09/03 A3018 RMK A01 T00850034  RH  070%=      5-min Rain = 0
KCR2 150147Z 16005KT 09/03 A3018 RMK A01 T00860034  RH  070%=      5-min Rain = 0
KCR2 150148Z 16006KT 09/04 A3018 RMK A01 T00870035  RH  070%=      5-min Rain = 0
KCR2 150149Z 15006KT 09/03 A3018 RMK A01 T00870034  RH  070%=      5-min Rain = 0
KCR2 150150Z 16006KT 09/03 A3017 RMK A01 T00870034  RH  069%=      5-min Rain = 0
KCR2 150151Z 14006KT 09/03 A3017 RMK A01 T00880034  RH  069%=      5-min Rain = 0
KCR2 150152Z 15007KT 09/03 A3017 RMK A01 T00870034  RH  069%=      5-min Rain = 0
KCR2 150153Z 16006KT 09/03 A3017 RMK A01 T00880034  RH  069%=      5-min Rain = 0
KCR2 150154Z 16006KT 09/03 A3017 RMK A01 T00880034  RH  069%=      5-min Rain = 0
KCR2 150155Z 16006KT 09/03 A3017 RMK A01 T00890034  RH  069%=      5-min Rain = 0
KCR2 150156Z 16005KT 09/04 A3017 RMK A01 T00890035  RH  069%=      5-min Rain = 0
KCR2 150157Z 16005KT 09/04 A3017 RMK A01 T00880035  RH  069%=      5-min Rain = 0
KCR2 150158Z 17006KT 09/04 A3017 RMK A01 T00870035  RH  070%=      5-min Rain = 0
KCR2 150159Z 17007KT 09/04 A3017 RMK A01 T00870035  RH  070%=      5-min Rain = 0
KCR2 150200Z 16012KT 09/03 A3017 RMK A01 T00880034  RH  069%=      5-min Rain = 0
KCR2 150201Z 16010KT 09/04 A3017 RMK A01 T00920035  RH  067%=      5-min Rain = 0
KCR2 150202Z 16011KT 09/04 A3017 RMK A01 T00930035  RH  067%=      5-min Rain = 0
KCR2 150203Z 16012KT 09/03 A3017 RMK A01 T00930033  RH  066%=      5-min Rain = 0
KCR2 150204Z 16013KT 10/03 A3017 RMK A01 T00950034  RH  065%=      5-min Rain = 0
KCR2 150205Z 16013KT 10/03 A3017 RMK A01 T00960034  RH  065%=      5-min Rain = 0
KCR2 150206Z 17012KT 10/03 A3017 RMK A01 T00960034  RH  066%=      5-min Rain = 0
KCR2 150207Z 16012KT 10/03 A3017 RMK A01 T00950034  RH  066%=      5-min Rain = 0
KCR2 150208Z 16011KT 10/03 A3017 RMK A01 T00950034  RH  066%=      5-min Rain = 0
KCR2 150209Z 17010KT 10/03 A3017 RMK A01 T00950034  RH  066%=      5-min Rain = 0
KCR2 150210Z 17010KT 09/04 A3017 RMK A01 T00940035  RH  067%=      5-min Rain = 0
KCR2 150211Z 16009KT 09/03 A3017 RMK A01 T00920034  RH  067%=      5-min Rain = 0
KCR2 150212Z 16011KT 09/03 A3017 RMK A01 T00920034  RH  067%=      5-min Rain = 0
KCR2 150213Z 16011KT 09/03 A3017 RMK A01 T00920034  RH  067%=      5-min Rain = 0
KCR2 150214Z 16010KT 09/03 A3017 RMK A01 T00920034  RH  067%=      5-min Rain = 0
KCR2 150215Z 16010KT 09/03 A3017 RMK A01 T00930034  RH  067%=      5-min Rain = 0
KCR2 150216Z 16009KT 09/03 A3017 RMK A01 T00930034  RH  067%=      5-min Rain = 0
KCR2 150217Z 16009KT 09/04 A3017 RMK A01 T00930035  RH  067%=      5-min Rain = 0
KCR2 150218Z 16009KT 09/03 A3017 RMK A01 T00930034  RH  067%=      5-min Rain = 0
KCR2 150219Z 15008KT 09/03 A3017 RMK A01 T00920034  RH  067%=      5-min Rain = 0
KCR2 150220Z 16008KT 09/03 A3018 RMK A01 T00920034  RH  067%=      5-min Rain = 0
KCR2 150221Z 16008KT 09/04 A3018 RMK A01 T00900035  RH  068%=      5-min Rain = 0
KCR2 150222Z 16009KT 09/03 A3018 RMK A01 T00900034  RH  068%=      5-min Rain = 0
KCR2 150223Z 16011KT 09/03 A3018 RMK A01 T00910034  RH  067%=      5-min Rain = 0
KCR2 150224Z 15009KT 09/03 A3018 RMK A01 T00920034  RH  067%=      5-min Rain = 0
KCR2 150225Z 16009KT 09/03 A3018 RMK A01 T00930034  RH  066%=      5-min Rain = 0
KCR2 150226Z 16008KT 09/03 A3018 RMK A01 T00930034  RH  066%=      5-min Rain = 0
KCR2 150227Z 16009KT 09/03 A3018 RMK A01 T00930034  RH  067%=      5-min Rain = 0
KCR2 150228Z 17008KT 09/03 A3018 RMK A01 T00930034  RH  067%=      5-min Rain = 0
KCR2 150229Z 17007KT 09/04 A3018 RMK A01 T00920035  RH  067%=      5-min Rain = 0
KCR2 150230Z 16008KT 09/03 A3018 RMK A01 T00910034  RH  068%=      5-min Rain = 0
KCR2 150231Z 16010KT 09/03 A3018 RMK A01 T00900034  RH  068%=      5-min Rain = 0
KCR2 150232Z 16011KT 09/03 A3018 RMK A01 T00900034  RH  068%=      5-min Rain = 0
KCR2 150233Z 16010KT 09/03 A3018 RMK A01 T00910034  RH  067%=      5-min Rain = 0
KCR2 150234Z 16010KT 09/03 A3018 RMK A01 T00920034  RH  067%=      5-min Rain = 0
KCR2 150235Z 16010KT 09/04 A3018 RMK A01 T00910035  RH  068%=      5-min Rain = 0
KCR2 150236Z 16011KT 09/03 A3018 RMK A01 T00890034  RH  068%=      5-min Rain = 0
KCR2 150237Z 16010KT 09/04 A3018 RMK A01 T00890035  RH  069%=      5-min Rain = 0
KCR2 150238Z 16010KT 09/04 A3017 RMK A01 T00890035  RH  069%=      5-min Rain = 0
KCR2 150239Z 17010KT 09/04 A3017 RMK A01 T00880035  RH  069%=      5-min Rain = 0
KCR2 150240Z 16010KT 09/03 A3017 RMK A01 T00880034  RH  069%=      5-min Rain = 0
KCR2 150241Z 16011KT 09/03 A3018 RMK A01 T00890034  RH  069%=      5-min Rain = 0
KCR2 150242Z 16011KT 09/03 A3018 RMK A01 T00890034  RH  069%=      5-min Rain = 0
KCR2 150243Z 16012KT 09/04 A3018 RMK A01 T00890035  RH  069%=      5-min Rain = 0
KCR2 150244Z 16011KT 09/03 A3018 RMK A01 T00890034  RH  068%=      5-min Rain = 0
KCR2 150245Z 17011KT 09/04 A3018 RMK A01 T00890035  RH  069%=      5-min Rain = 0
KCR2 150246Z 16011KT 09/04 A3018 RMK A01 T00890035  RH  069%=      5-min Rain = 0
KCR2 150247Z 17011KT 09/04 A3018 RMK A01 T00890035  RH  069%=      5-min Rain = 0
KCR2 150248Z 17012KT 09/03 A3018 RMK A01 T00890034  RH  068%=      5-min Rain = 0
KCR2 150249Z 17012KT 09/04 A3018 RMK A01 T00900035  RH  068%=      5-min Rain = 0
KCR2 150250Z 17011KT 09/03 A3018 RMK A01 T00900034  RH  068%=      5-min Rain = 0
KCR2 150251Z 16011KT 09/04 A3018 RMK A01 T00900035  RH  068%=      5-min Rain = 0
KCR2 150252Z 17012KT 09/03 A3018 RMK A01 T00890034  RH  068%=      5-min Rain = 0
KCR2 150253Z 17011KT 09/04 A3018 RMK A01 T00890035  RH  069%=      5-min Rain = 0
KCR2 150254Z 17013KT 09/04 A3018 RMK A01 T00890035  RH  069%=      5-min Rain = 0
KCR2 150255Z 16012KT 09/04 A3018 RMK A01 T00890035  RH  069%=      5-min Rain = 0
KCR2 150256Z 17014KT 09/04 A3018 RMK A01 T00890035  RH  069%=      5-min Rain = 0
KCR2 150257Z 17012KT 09/03 A3018 RMK A01 T00890034  RH  069%=      5-min Rain = 0
KCR2 150258Z 17012KT 09/04 A3018 RMK A01 T00890035  RH  069%=      5-min Rain = 0
KCR2 150259Z 17012KT 09/04 A3018 RMK A01 T00890035  RH  069%=      5-min Rain = 0
KCR2 150300Z 16012KT 09/04 A3018 RMK A01 T00880035  RH  069%=      5-min Rain = 0
KCR2 150301Z 17014KT 09/04 A3018 RMK A01 T00880035  RH  070%=      5-min Rain = 0
KCR2 150302Z 17014KT 09/04 A3018 RMK A01 T00880035  RH  069%=      5-min Rain = 0
KCR2 150303Z 16015KT 09/04 A3018 RMK A01 T00890035  RH  069%=      5-min Rain = 0
KCR2 150304Z 16015KT 09/04 A3018 RMK A01 T00890035  RH  069%=      5-min Rain = 0
KCR2 150305Z 16015KT 09/04 A3018 RMK A01 T00900035  RH  069%=      5-min Rain = 0
KCR2 150306Z 16015KT 09/04 A3018 RMK A01 T00900035  RH  069%=      5-min Rain = 0
KCR2 150307Z 17015KT 09/04 A3018 RMK A01 T00890036  RH  069%=      5-min Rain = 0
KCR2 150308Z 17013KT 09/04 A3018 RMK A01 T00890036  RH  069%=      5-min Rain = 0
KCR2 150309Z 17015KT 09/04 A3018 RMK A01 T00880036  RH  070%=      5-min Rain = 0
KCR2 150310Z 16016KT 09/04 A3018 RMK A01 T00890036  RH  069%=      5-min Rain = 0
KCR2 150311Z 16014KT 09/04 A3018 RMK A01 T00900036  RH  069%=      5-min Rain = 0
KCR2 150312Z 17015KT 09/04 A3018 RMK A01 T00890036  RH  069%=      5-min Rain = 0
KCR2 150313Z 16013KT 09/04 A3018 RMK A01 T00890035  RH  069%=      5-min Rain = 0
KCR2 150314Z 16013KT 09/04 A3018 RMK A01 T00880036  RH  070%=      5-min Rain = 0
KCR2 150315Z 17014KT 09/04 A3018 RMK A01 T00880036  RH  070%=      5-min Rain = 0
KCR2 150316Z 17013KT 09/04 A3018 RMK A01 T00880036  RH  070%=      5-min Rain = 0
KCR2 150317Z 17014KT 09/04 A3018 RMK A01 T00880036  RH  070%=      5-min Rain = 0
KCR2 150318Z 16014KT 09/04 A3018 RMK A01 T00870036  RH  070%=      5-min Rain = 0
KCR2 150319Z 17012KT 09/04 A3018 RMK A01 T00870036  RH  070%=      5-min Rain = 0
KCR2 150320Z 16012KT 09/04 A3018 RMK A01 T00870036  RH  070%=      5-min Rain = 0
KCR2 150321Z 17014KT 09/04 A3018 RMK A01 T00870036  RH  070%=      5-min Rain = 0
KCR2 150322Z 17014KT 09/04 A3018 RMK A01 T00870036  RH  070%=      5-min Rain = 0
KCR2 150323Z 17012KT 09/04 A3018 RMK A01 T00870036  RH  070%=      5-min Rain = 0
KCR2 150324Z 16013KT 09/04 A3018 RMK A01 T00860036  RH  070%=      5-min Rain = 0
KCR2 150325Z 16012KT 09/04 A3018 RMK A01 T00860036  RH  071%=      5-min Rain = 0
KCR2 150326Z 16012KT 09/04 A3018 RMK A01 T00860036  RH  071%=      5-min Rain = 0
KCR2 150327Z 15012KT 09/04 A3018 RMK A01 T00850036  RH  071%=      5-min Rain = 0
KCR2 150328Z 16014KT 09/04 A3018 RMK A01 T00850035  RH  071%=      5-min Rain = 0
KCR2 150329Z 16013KT 09/04 A3018 RMK A01 T00860036  RH  071%=      5-min Rain = 0
KCR2 150330Z 16013KT 09/04 A3018 RMK A01 T00860036  RH  071%=      5-min Rain = 0
KCR2 150331Z 16013KT 09/04 A3018 RMK A01 T00860036  RH  071%=      5-min Rain = 0
KCR2 150332Z 16013KT 09/04 A3017 RMK A01 T00860035  RH  071%=      5-min Rain = 0
KCR2 150333Z 16014KT 09/04 A3017 RMK A01 T00860036  RH  071%=      5-min Rain = 0
KCR2 150334Z 16014KT 09/04 A3017 RMK A01 T00850036  RH  071%=      5-min Rain = 0
KCR2 150335Z 16013KT 09/04 A3017 RMK A01 T00860035  RH  071%=      5-min Rain = 0
KCR2 150336Z 16014KT 09/04 A3018 RMK A01 T00860036  RH  071%=      5-min Rain = 0
KCR2 150337Z 17013KT 09/04 A3018 RMK A01 T00860035  RH  071%=      5-min Rain = 0
KCR2 150338Z 17013KT 09/04 A3018 RMK A01 T00860035  RH  071%=      5-min Rain = 0
KCR2 150339Z 16014KT 09/04 A3018 RMK A01 T00850035  RH  071%=      5-min Rain = 0
KCR2 150340Z 16015KT 09/04 A3018 RMK A01 T00860035  RH  070%=      5-min Rain = 0
KCR2 150341Z 16012KT 09/04 A3018 RMK A01 T00860035  RH  070%=      5-min Rain = 0
KCR2 150342Z 16012KT 09/04 A3018 RMK A01 T00850035  RH  071%=      5-min Rain = 0
KCR2 150343Z 16011KT 09/04 A3018 RMK A01 T00850035  RH  071%=      5-min Rain = 0
KCR2 150344Z 17012KT 08/04 A3018 RMK A01 T00840035  RH  071%=      5-min Rain = 0
KCR2 150345Z 16012KT 08/04 A3018 RMK A01 T00830035  RH  071%=      5-min Rain = 0
KCR2 150346Z 16011KT 08/03 A3018 RMK A01 T00830034  RH  071%=      5-min Rain = 0
KCR2 150347Z 18014KT 08/04 A3018 RMK A01 T00830035  RH  071%=      5-min Rain = 0
KCR2 150348Z 17019KT 08/03 A3018 RMK A01 T00840034  RH  071%=      5-min Rain = 0
KCR2 150349Z 17013KT 09/03 A3018 RMK A01 T00850034  RH  070%=      5-min Rain = 0
KCR2 150350Z 16011KT 09/03 A3018 RMK A01 T00860034  RH  070%=      5-min Rain = 0
KCR2 150351Z 16012KT 09/03 A3018 RMK A01 T00860034  RH  070%=      5-min Rain = 0
KCR2 150352Z 17011KT 09/03 A3018 RMK A01 T00850034  RH  070%=      5-min Rain = 0
KCR2 150353Z 16012KT 08/03 A3018 RMK A01 T00840034  RH  071%=      5-min Rain = 0
KCR2 150354Z 17013KT 08/03 A3018 RMK A01 T00830033  RH  071%=      5-min Rain = 0
KCR2 150355Z 16012KT 08/03 A3018 RMK A01 T00840033  RH  071%=      5-min Rain = 0
KCR2 150356Z 16013KT 08/03 A3018 RMK A01 T00840034  RH  070%=      5-min Rain = 0
KCR2 150357Z 17010KT 08/03 A3018 RMK A01 T00840034  RH  070%=      5-min Rain = 0
KCR2 150358Z 16010KT 08/03 A3018 RMK A01 T00840034  RH  071%=      5-min Rain = 0
KCR2 150359Z 16013G21KT 08/03 A3018 RMK A01 T00830034  RH  071%=      5-min Rain = 0
KCR2 150400Z 17014KT 08/03 A3018 RMK A01 T00830033  RH  071%=      5-min Rain = 0
KCR2 150401Z 16014KT 08/03 A3018 RMK A01 T00830033  RH  071%=      5-min Rain = 0
KCR2 150402Z 17016KT 08/03 A3018 RMK A01 T00830033  RH  071%=      5-min Rain = 0
KCR2 150403Z 16014KT 08/03 A3018 RMK A01 T00840033  RH  070%=      5-min Rain = 0
KCR2 150404Z 17011KT 08/03 A3018 RMK A01 T00840033  RH  070%=      5-min Rain = 0
KCR2 150405Z 17012KT 08/03 A3018 RMK A01 T00830033  RH  071%=      5-min Rain = 0
KCR2 150406Z 16014KT 08/03 A3018 RMK A01 T00830033  RH  071%=      5-min Rain = 0
KCR2 150407Z 17013KT 08/03 A3018 RMK A01 T00830033  RH  071%=      5-min Rain = 0
KCR2 150408Z 18014KT 08/03 A3018 RMK A01 T00820033  RH  071%=      5-min Rain = 0
KCR2 150409Z 17011KT 08/03 A3018 RMK A01 T00820033  RH  071%=      5-min Rain = 0
KCR2 150410Z 17012KT 08/03 A3018 RMK A01 T00820032  RH  071%=      5-min Rain = 0
KCR2 150411Z 17013KT 08/03 A3018 RMK A01 T00820032  RH  071%=      5-min Rain = 0
KCR2 150412Z 17013KT 08/03 A3018 RMK A01 T00820032  RH  071%=      5-min Rain = 0
KCR2 150413Z 17016KT 08/03 A3018 RMK A01 T00820032  RH  071%=      5-min Rain = 0
KCR2 150414Z 18013KT 08/03 A3018 RMK A01 T00820032  RH  071%=      5-min Rain = 0
KCR2 150415Z 17015KT 08/03 A3018 RMK A01 T00820032  RH  071%=      5-min Rain = 0
KCR2 150416Z 17016KT 08/03 A3018 RMK A01 T00820032  RH  071%=      5-min Rain = 0
KCR2 150417Z 17016KT 08/03 A3018 RMK A01 T00820032  RH  071%=      5-min Rain = 0
KCR2 150418Z 17015KT 08/03 A3018 RMK A01 T00820031  RH  070%=      5-min Rain = 0
KCR2 150419Z 17014KT 08/03 A3018 RMK A01 T00820031  RH  070%=      5-min Rain = 0
KCR2 150420Z 17016KT 08/03 A3018 RMK A01 T00820032  RH  071%=      5-min Rain = 0
KCR2 150421Z 18014KT 08/03 A3018 RMK A01 T00810032  RH  071%=      5-min Rain = 0
KCR2 150422Z 17013KT 08/03 A3018 RMK A01 T00810032  RH  071%=      5-min Rain = 0
KCR2 150423Z 18014KT 08/03 A3018 RMK A01 T00810032  RH  071%=      5-min Rain = 0
KCR2 150424Z 17015KT 08/03 A3018 RMK A01 T00800031  RH  071%=      5-min Rain = 0
KCR2 150425Z 17013KT 08/03 A3018 RMK A01 T00800031  RH  071%=      5-min Rain = 0
KCR2 150426Z 16012KT 08/03 A3018 RMK A01 T00800032  RH  072%=      5-min Rain = 0
KCR2 150427Z 18015KT 08/03 A3017 RMK A01 T00800031  RH  071%=      5-min Rain = 0
KCR2 150428Z 17012KT 08/03 A3018 RMK A01 T00800031  RH  071%=      5-min Rain = 0
KCR2 150429Z 17015KT 08/03 A3017 RMK A01 T00790031  RH  071%=      5-min Rain = 0
KCR2 150430Z 17017KT 08/03 A3017 RMK A01 T00790031  RH  071%=      5-min Rain = 0
KCR2 150431Z 17016KT 08/03 A3017 RMK A01 T00800031  RH  071%=      5-min Rain = 0
KCR2 150432Z 18016KT 08/03 A3017 RMK A01 T00800030  RH  071%=      5-min Rain = 0
KCR2 150433Z 17015KT 08/03 A3017 RMK A01 T00810030  RH  070%=      5-min Rain = 0
KCR2 150434Z 17016KT 08/03 A3017 RMK A01 T00810030  RH  070%=      5-min Rain = 0
KCR2 150435Z 17016KT 08/03 A3017 RMK A01 T00810030  RH  071%=      5-min Rain = 0
KCR2 150436Z 17017KT 08/03 A3017 RMK A01 T00810031  RH  071%=      5-min Rain = 0
KCR2 150437Z 18016KT 08/03 A3017 RMK A01 T00810030  RH  070%=      5-min Rain = 0
KCR2 150438Z 17013KT 08/03 A3017 RMK A01 T00810030  RH  070%=      5-min Rain = 0
KCR2 150439Z 17015KT 08/03 A3017 RMK A01 T00810030  RH  070%=      5-min Rain = 0
KCR2 150440Z 17014KT 08/03 A3017 RMK A01 T00800030  RH  071%=      5-min Rain = 0
KCR2 150441Z 18015KT 08/03 A3017 RMK A01 T00800030  RH  071%=      5-min Rain = 0
KCR2 150442Z 17014KT 08/03 A3017 RMK A01 T00800030  RH  071%=      5-min Rain = 0
KCR2 150443Z 17014KT 08/03 A3017 RMK A01 T00800030  RH  071%=      5-min Rain = 0
KCR2 150444Z 17013KT 08/03 A3017 RMK A01 T00790030  RH  071%=      5-min Rain = 0
KCR2 150445Z 17015KT 08/03 A3017 RMK A01 T00790030  RH  071%=      5-min Rain = 0
KCR2 150446Z 18013KT 08/03 A3017 RMK A01 T00790029  RH  071%=      5-min Rain = 0
KCR2 150447Z 17014KT 08/03 A3017 RMK A01 T00800030  RH  071%=      5-min Rain = 0
KCR2 150448Z 17011KT 08/03 A3017 RMK A01 T00800030  RH  071%=      5-min Rain = 0
KCR2 150449Z 17012KT 08/03 A3017 RMK A01 T00790030  RH  071%=      5-min Rain = 0
KCR2 150450Z 17014KT 08/03 A3017 RMK A01 T00780030  RH  071%=      5-min Rain = 0
KCR2 150451Z 18015KT 08/03 A3017 RMK A01 T00780030  RH  071%=      5-min Rain = 0
KCR2 150452Z 17013KT 08/03 A3017 RMK A01 T00790030  RH  071%=      5-min Rain = 0
KCR2 150453Z 17013KT 08/03 A3017 RMK A01 T00790030  RH  071%=      5-min Rain = 0
KCR2 150454Z 17013KT 08/03 A3017 RMK A01 T00790030  RH  071%=      5-min Rain = 0
KCR2 150455Z 17015G20KT 08/03 A3017 RMK A01 T00790030  RH  071%=      5-min Rain = 0
KCR2 150456Z 17016KT 08/03 A3017 RMK A01 T00790029  RH  071%=      5-min Rain = 0
KCR2 150457Z 18013KT 08/03 A3017 RMK A01 T00790030  RH  071%=      5-min Rain = 0
KCR2 150458Z 18012KT 08/03 A3017 RMK A01 T00790030  RH  071%=      5-min Rain = 0
KCR2 150459Z 17015KT 08/03 A3017 RMK A01 T00790030  RH  071%=      5-min Rain = 0
KCR2 150500Z 18015KT 08/03 A3017 RMK A01 T00790029  RH  071%=      5-min Rain = 0
KCR2 150501Z 18017KT 08/03 A3017 RMK A01 T00790029  RH  071%=      5-min Rain = 0
KCR2 150502Z 18016KT 08/03 A3017 RMK A01 T00790029  RH  070%=      5-min Rain = 0
KCR2 150503Z 17014KT 08/03 A3017 RMK A01 T00800029  RH  070%=      5-min Rain = 0
KCR2 150504Z 18015KT 08/03 A3017 RMK A01 T00800029  RH  071%=      5-min Rain = 0
KCR2 150505Z 17017KT 08/03 A3017 RMK A01 T00790029  RH  071%=      5-min Rain = 0
KCR2 150506Z 18015KT 08/03 A3017 RMK A01 T00800029  RH  070%=      5-min Rain = 0
KCR2 150507Z 18010KT 08/03 A3017 RMK A01 T00800029  RH  070%=      5-min Rain = 0
KCR2 150508Z 18012KT 08/03 A3017 RMK A01 T00790029  RH  071%=      5-min Rain = 0
KCR2 150509Z 18014KT 08/03 A3017 RMK A01 T00780029  RH  071%=      5-min Rain = 0
KCR2 150510Z 17012KT 08/03 A3017 RMK A01 T00780029  RH  071%=      5-min Rain = 0
KCR2 150511Z 18013KT 08/03 A3017 RMK A01 T00780029  RH  071%=      5-min Rain = 0
KCR2 150512Z 18012KT 08/03 A3017 RMK A01 T00780029  RH  071%=      5-min Rain = 0
KCR2 150513Z 18011KT 08/03 A3017 RMK A01 T00770029  RH  071%=      5-min Rain = 0
KCR2 150514Z 18010KT 08/03 A3017 RMK A01 T00780029  RH  071%=      5-min Rain = 0
KCR2 150515Z 18011KT 08/03 A3017 RMK A01 T00770029  RH  072%=      5-min Rain = 0
KCR2 150516Z 17012KT 08/03 A3017 RMK A01 T00770029  RH  071%=      5-min Rain = 0
KCR2 150517Z 18012KT 08/03 A3017 RMK A01 T00770029  RH  071%=      5-min Rain = 0
KCR2 150518Z 18011KT 08/03 A3017 RMK A01 T00780029  RH  071%=      5-min Rain = 0
KCR2 150519Z 18012KT 08/03 A3017 RMK A01 T00780028  RH  071%=      5-min Rain = 0
KCR2 150520Z 18011KT 08/03 A3017 RMK A01 T00770029  RH  072%=      5-min Rain = 0
KCR2 150521Z 17011KT 08/03 A3017 RMK A01 T00770029  RH  072%=      5-min Rain = 0
KCR2 150522Z 17013KT 08/03 A3017 RMK A01 T00770029  RH  072%=      5-min Rain = 0
KCR2 150523Z 18013KT 08/03 A3017 RMK A01 T00770029  RH  071%=      5-min Rain = 0
KCR2 150524Z 18010KT 08/03 A3017 RMK A01 T00780029  RH  071%=      5-min Rain = 0
KCR2 150525Z 17010KT 08/03 A3017 RMK A01 T00770029  RH  071%=      5-min Rain = 0
KCR2 150526Z 17010KT 08/03 A3017 RMK A01 T00770029  RH  072%=      5-min Rain = 0
KCR2 150527Z 18011KT 08/03 A3017 RMK A01 T00760029  RH  072%=      5-min Rain = 0
KCR2 150528Z 18011KT 08/03 A3017 RMK A01 T00750029  RH  073%=      5-min Rain = 0
KCR2 150529Z 18011KT 08/03 A3017 RMK A01 T00760029  RH  072%=      5-min Rain = 0
KCR2 150530Z 18010KT 08/03 A3017 RMK A01 T00760029  RH  072%=      5-min Rain = 0
KCR2 150531Z 18011KT 08/03 A3017 RMK A01 T00760029  RH  072%=      5-min Rain = 0
KCR2 150532Z 18012KT 08/03 A3016 RMK A01 T00760029  RH  072%=      5-min Rain = 0
KCR2 150533Z 18012KT 08/03 A3016 RMK A01 T00770029  RH  072%=      5-min Rain = 0
KCR2 150534Z 18011KT 08/03 A3016 RMK A01 T00770029  RH  072%=      5-min Rain = 0
KCR2 150535Z 18013KT 08/03 A3016 RMK A01 T00770029  RH  072%=      5-min Rain = 0
KCR2 150536Z 17011KT 08/03 A3016 RMK A01 T00760029  RH  072%=      5-min Rain = 0
KCR2 150537Z 18010KT 08/03 A3016 RMK A01 T00760029  RH  072%=      5-min Rain = 0
KCR2 150538Z 18013KT 08/03 A3016 RMK A01 T00750029  RH  073%=      5-min Rain = 0
KCR2 150539Z 18013KT 08/03 A3016 RMK A01 T00760029  RH  072%=      5-min Rain = 0
KCR2 150540Z 18013KT 08/03 A3016 RMK A01 T00770029  RH  072%=      5-min Rain = 0
KCR2 150541Z 18012KT 08/03 A3016 RMK A01 T00770029  RH  072%=      5-min Rain = 0
KCR2 150542Z 17011KT 08/03 A3016 RMK A01 T00760029  RH  072%=      5-min Rain = 0
KCR2 150543Z 18009KT 08/03 A3016 RMK A01 T00750030  RH  073%=      5-min Rain = 0
KCR2 150544Z 18009KT 07/03 A3016 RMK A01 T00740029  RH  073%=      5-min Rain = 0
KCR2 150545Z 18012KT 07/03 A3016 RMK A01 T00730030  RH  074%=      5-min Rain = 0
KCR2 150546Z 18013KT 07/03 A3016 RMK A01 T00730029  RH  074%=      5-min Rain = 0
KCR2 150547Z 17014KT 07/03 A3016 RMK A01 T00740030  RH  073%=      5-min Rain = 0
KCR2 150548Z 18013KT 08/03 A3016 RMK A01 T00750030  RH  073%=      5-min Rain = 0
KCR2 150549Z 18012KT 08/03 A3016 RMK A01 T00760030  RH  073%=      5-min Rain = 0
KCR2 150550Z 18014KT 08/03 A3015 RMK A01 T00760030  RH  073%=      5-min Rain = 0
KCR2 150551Z 18013KT 08/03 A3015 RMK A01 T00760030  RH  072%=      5-min Rain = 0
KCR2 150552Z 18011KT 08/03 A3016 RMK A01 T00760030  RH  072%=      5-min Rain = 0
KCR2 150553Z 18010KT 08/03 A3016 RMK A01 T00760030  RH  073%=      5-min Rain = 0
KCR2 150554Z 18010KT 08/03 A3015 RMK A01 T00760030  RH  073%=      5-min Rain = 0
KCR2 150555Z 18010KT 08/03 A3016 RMK A01 T00760030  RH  073%=      5-min Rain = 0
KCR2 150556Z 18009KT 08/03 A3016 RMK A01 T00750030  RH  073%=      5-min Rain = 0
KCR2 150557Z 18009KT 07/03 A3015 RMK A01 T00740030  RH  073%=      5-min Rain = 0
KCR2 150558Z 18009KT 07/03 A3015 RMK A01 T00740030  RH  074%=      5-min Rain = 0
KCR2 150559Z 18010KT 07/03 A3015 RMK A01 T00730030  RH  074%=      5-min Rain = 0

Page generated in 0.1816 seconds.